| time (UTC) | temp F | wind direction | speed MPH | gust MPH | rain 1hr in | rain 24hr in | rain mn in | humidity % | barometer mb |
| 20260508205403 | 66 | 162 | 0.0 | 2.0 | 0.09 | 0.11 | 0.11 | 88 | 1013.6 |
| 20260508205306 | 67 | 132 | 0.0 | 2.0 | 0.10 | 0.11 | 0.11 | 88 | 1013.6 |
| 20260508205203 | 67 | 184 | 0.0 | 3.0 | 0.10 | 0.11 | 0.11 | 88 | 1013.7 |
| 20260508205006 | 67 | 252 | 1.0 | 3.0 | 0.10 | 0.11 | 0.11 | 88 | 1013.6 |
| 20260508204703 | 67 | 245 | 0.0 | 3.0 | 0.09 | 0.10 | 0.10 | 88 | 1013.7 |
| 20260508204602 | 67 | 251 | 0.0 | 3.0 | 0.09 | 0.10 | 0.10 | 88 | 1013.8 |
| 20260508204506 | 67 | 268 | 2.0 | 3.0 | 0.09 | 0.10 | 0.10 | 88 | 1013.7 |
| 20260508204303 | 67 | 245 | 0.0 | 3.0 | 0.09 | 0.09 | 0.09 | 87 | 1013.8 |
| 20260508204204 | 67 | 241 | 0.0 | 3.0 | 0.09 | 0.09 | 0.09 | 87 | 1013.7 |
| 20260508204105 | 67 | 228 | 0.0 | 3.0 | 0.09 | 0.09 | 0.09 | 87 | 1013.7 |
| 20260508203904 | 67 | 148 | 1.0 | 3.0 | 0.08 | 0.08 | 0.08 | 87 | 1013.7 |
| 20260508203803 | 67 | 129 | 1.0 | 2.0 | 0.08 | 0.08 | 0.08 | 87 | 1013.6 |
| 20260508203703 | 67 | 324 | 0.0 | 2.0 | 0.08 | 0.08 | 0.08 | 87 | 1013.5 |
| 20260508203602 | 67 | 160 | 0.0 | 2.0 | 0.08 | 0.08 | 0.08 | 87 | 1013.6 |
| 20260508203506 | 67 | 165 | 0.0 | 2.0 | 0.08 | 0.08 | 0.08 | 87 | 1013.6 |
| 20260508203403 | 67 | 158 | 1.0 | 2.0 | 0.08 | 0.08 | 0.08 | 87 | 1013.4 |
| 20260508203203 | 67 | 328 | 0.0 | 3.0 | 0.07 | 0.07 | 0.07 | 87 | 1013.5 |
| 20260508203102 | 67 | 328 | 1.0 | 3.0 | 0.07 | 0.07 | 0.07 | 87 | 1013.4 |
| 20260508203008 | 67 | 221 | 0.0 | 3.0 | 0.07 | 0.07 | 0.07 | 87 | 1013.4 |
| 20260508202903 | 67 | 283 | 0.0 | 3.0 | 0.06 | 0.06 | 0.06 | 87 | 1013.5 |
| 20260508202803 | 68 | 284 | 0.0 | 3.0 | 0.06 | 0.06 | 0.06 | 87 | 1013.5 |
| 20260508202703 | 68 | 319 | 0.0 | 3.0 | 0.06 | 0.06 | 0.06 | 86 | 1013.4 |
| 20260508202603 | 68 | 286 | 0.0 | 3.0 | 0.06 | 0.06 | 0.06 | 86 | 1013.4 |
| 20260508202505 | 68 | 283 | 0.0 | 3.0 | 0.06 | 0.06 | 0.06 | 86 | 1013.4 |
| 20260508202403 | 68 | 309 | 0.0 | 3.0 | 0.06 | 0.06 | 0.06 | 86 | 1013.4 |
| 20260508202203 | 68 | 295 | 0.0 | 1.0 | 0.05 | 0.05 | 0.05 | 86 | 1013.3 |
| 20260508202006 | 68 | 249 | 0.0 | 0.0 | 0.05 | 0.05 | 0.05 | 86 | 1013.4 |
| 20260508201902 | 68 | 249 | 0.0 | 0.0 | 0.05 | 0.05 | 0.05 | 86 | 1013.4 |
| 20260508201303 | 68 | 249 | 0.0 | 2.0 | 0.04 | 0.04 | 0.04 | 85 | 1013.5 |
| 20260508201204 | 68 | 259 | 0.0 | 2.0 | 0.04 | 0.04 | 0.04 | 85 | 1013.6 |
| 20260508201104 | 68 | 259 | 0.0 | 2.0 | 0.04 | 0.04 | 0.04 | 85 | 1013.7 |
| 20260508200506 | 69 | 39 | 0.0 | 2.0 | 0.03 | 0.03 | 0.03 | 84 | 1013.7 |
| 20260508200403 | 69 | 39 | 0.0 | 2.0 | 0.03 | 0.03 | 0.03 | 84 | 1013.8 |
| 20260508200303 | 69 | 281 | 0.0 | 2.0 | 0.03 | 0.03 | 0.03 | 84 | 1013.9 |
| 20260508200104 | 69 | 281 | 0.0 | 3.0 | 0.03 | 0.03 | 0.03 | 83 | 1013.9 |
| 20260508200007 | 69 | 273 | 0.0 | 3.0 | 0.02 | 0.02 | 0.02 | 83 | 1013.9 |
| 20260508195903 | 69 | 302 | 0.0 | 3.0 | 0.02 | 0.13 | 0.02 | 82 | 1014.0 |
| 20260508195803 | 69 | 247 | 0.0 | 3.0 | 0.02 | 0.13 | 0.02 | 82 | 1014.0 |
| 20260508195703 | 69 | 247 | 0.0 | 3.0 | 0.02 | 0.13 | 0.02 | 82 | 1014.1 |
| 20260508195603 | 69 | 295 | 0.0 | 3.0 | 0.02 | 0.13 | 0.02 | 82 | 1014.1 |
| 20260508195505 | 69 | 333 | 0.0 | 3.0 | 0.02 | 0.13 | 0.02 | 82 | 1014.0 |
| 20260508195403 | 69 | 333 | 0.0 | 3.0 | 0.02 | 0.13 | 0.02 | 81 | 1014.0 |
| 20260508195305 | 70 | 333 | 0.0 | 3.0 | 0.01 | 0.12 | 0.01 | 81 | 1014.0 |
| 20260508195203 | 70 | 236 | 0.0 | 2.0 | 0.01 | 0.12 | 0.01 | 81 | 1014.0 |
| 20260508195103 | 70 | 288 | 0.0 | 2.0 | 0.01 | 0.12 | 0.01 | 80 | 1014.0 |
| 20260508194803 | 71 | 263 | 0.0 | 2.0 | 0.01 | 0.12 | 0.01 | 80 | 1014.0 |
| 20260508194506 | 71 | 330 | 0.0 | 3.0 | 0.00 | 0.11 | 0.00 | 78 | 1013.9 |
| 20260508194403 | 71 | 319 | 0.0 | 4.0 | 0.00 | 0.11 | 0.00 | 78 | 1013.9 |
| 20260508194303 | 71 | 319 | 0.0 | 4.0 | 0.00 | 0.11 | 0.00 | 77 | 1013.9 |
| 20260508194203 | 71 | 236 | 0.0 | 4.0 | 0.00 | 0.11 | 0.00 | 76 | 1013.9 |
| 20260508194103 | 71 | 236 | 0.0 | 4.0 | 0.00 | 0.11 | 0.00 | 76 | 1013.9 |
| 20260508194007 | 71 | 309 | 0.0 | 4.0 | 0.00 | 0.11 | 0.00 | 76 | 1013.9 |
| 20260508193902 | 72 | 335 | 0.0 | 4.0 | 0.00 | 0.11 | 0.00 | 75 | 1013.9 |
| 20260508193703 | 72 | 319 | 0.0 | 4.0 | 0.00 | 0.11 | 0.00 | 75 | 1013.9 |
| 20260508193604 | 72 | 328 | 0.0 | 4.0 | 0.00 | 0.11 | 0.00 | 75 | 1013.9 |
| 20260508193403 | 72 | 351 | 0.0 | 3.0 | 0.00 | 0.11 | 0.00 | 75 | 1013.8 |
| 20260508193203 | 72 | 360 | 1.0 | 3.0 | 0.00 | 0.11 | 0.00 | 74 | 1013.9 |
| 20260508193103 | 72 | 337 | 0.0 | 3.0 | 0.00 | 0.11 | 0.00 | 74 | 1013.9 |
| 20260508193007 | 72 | 328 | 1.0 | 3.0 | 0.00 | 0.11 | 0.00 | 73 | 1013.9 |
| 20260508192904 | 72 | 338 | 0.0 | 5.0 | 0.00 | 0.11 | 0.00 | 73 | 1013.9 |
| 20260508192704 | 73 | 329 | 0.0 | 5.0 | 0.00 | 0.11 | 0.00 | 72 | 1013.9 |
| 20260508192604 | 73 | 342 | 2.0 | 5.0 | 0.00 | 0.11 | 0.00 | 72 | 1013.9 |
| 20260508192505 | 73 | 5 | 2.0 | 5.0 | 0.00 | 0.11 | 0.00 | 73 | 1013.9 |
| 20260508192403 | 73 | 359 | 2.0 | 5.0 | 0.00 | 0.11 | 0.00 | 71 | 1013.9 |
| 20260508192306 | 73 | 331 | 0.0 | 5.0 | 0.00 | 0.11 | 0.00 | 71 | 1013.9 |
| 20260508192103 | 73 | 315 | 0.0 | 5.0 | 0.00 | 0.11 | 0.00 | 70 | 1013.9 |
| 20260508192005 | 73 | 333 | 3.0 | 3.0 | 0.00 | 0.11 | 0.00 | 70 | 1013.9 |
| 20260508191802 | 74 | 330 | 1.0 | 4.0 | 0.00 | 0.11 | 0.00 | 70 | 1013.8 |
| 20260508191704 | 74 | 351 | 3.0 | 4.0 | 0.00 | 0.11 | 0.00 | 70 | 1013.8 |
| 20260508191603 | 74 | 349 | 0.0 | 4.0 | 0.00 | 0.11 | 0.00 | 69 | 1013.8 |
| 20260508191506 | 74 | 25 | 1.0 | 4.0 | 0.00 | 0.11 | 0.00 | 69 | 1013.8 |
| 20260508191403 | 74 | 143 | 0.0 | 4.0 | 0.00 | 0.11 | 0.00 | 69 | 1013.8 |
| 20260508191302 | 74 | 342 | 2.0 | 4.0 | 0.00 | 0.11 | 0.00 | 69 | 1013.8 |
| 20260508191203 | 74 | 347 | 2.0 | 4.0 | 0.00 | 0.11 | 0.00 | 68 | 1013.8 |
| 20260508191104 | 74 | 323 | 2.0 | 4.0 | 0.00 | 0.11 | 0.00 | 68 | 1013.8 |
| 20260508190903 | 74 | 330 | 2.0 | 4.0 | 0.00 | 0.11 | 0.00 | 68 | 1013.9 |
| 20260508190702 | 74 | 312 | 0.0 | 5.0 | 0.00 | 0.11 | 0.00 | 68 | 1013.9 |
| 20260508190604 | 74 | 278 | 0.0 | 5.0 | 0.00 | 0.11 | 0.00 | 69 | 1013.9 |
| 20260508190505 | 74 | 354 | 0.0 | 5.0 | 0.00 | 0.11 | 0.00 | 68 | 1013.8 |
| 20260508190403 | 74 | 328 | 2.0 | 5.0 | 0.00 | 0.11 | 0.00 | 68 | 1013.9 |
| 20260508190303 | 74 | 328 | 2.0 | 5.0 | 0.00 | 0.11 | 0.00 | 68 | 1013.9 |
| 20260508190007 | 74 | 328 | 3.0 | 5.0 | 0.00 | 0.11 | 0.00 | 68 | 1014.0 |
| 20260508185903 | 74 | 317 | 3.0 | 4.0 | 0.00 | 0.11 | 0.00 | 67 | 1013.9 |
| 20260508185802 | 74 | 302 | 3.0 | 3.0 | 0.00 | 0.11 | 0.00 | 67 | 1013.9 |
| 20260508185701 | 74 | 304 | 2.0 | 3.0 | 0.00 | 0.11 | 0.00 | 66 | 1013.9 |
| 20260508185602 | 75 | 293 | 0.0 | 3.0 | 0.00 | 0.11 | 0.00 | 66 | 1013.9 |
| 20260508185505 | 75 | 163 | 0.0 | 3.0 | 0.00 | 0.11 | 0.00 | 67 | 1013.9 |
| 20260508185401 | 75 | 331 | 2.0 | 3.0 | 0.00 | 0.11 | 0.00 | 67 | 1013.8 |
| 20260508185306 | 75 | 324 | 2.0 | 3.0 | 0.00 | 0.11 | 0.00 | 67 | 1013.9 |
| 20260508185104 | 75 | 307 | 0.0 | 3.0 | 0.00 | 0.11 | 0.00 | 67 | 1013.9 |
| 20260508184902 | 75 | 293 | 2.0 | 4.0 | 0.00 | 0.11 | 0.00 | 67 | 1014.0 |
| 20260508184702 | 75 | 167 | 0.0 | 4.0 | 0.00 | 0.11 | 0.00 | 66 | 1014.0 |
| 20260508184602 | 75 | 221 | 0.0 | 4.0 | 0.00 | 0.11 | 0.00 | 66 | 1014.0 |
| 20260508184505 | 75 | 295 | 0.0 | 4.0 | 0.00 | 0.11 | 0.00 | 66 | 1014.0 |
| 20260508184403 | 75 | 314 | 0.0 | 4.0 | 0.00 | 0.11 | 0.00 | 66 | 1014.0 |
| 20260508184301 | 75 | 319 | 2.0 | 4.0 | 0.00 | 0.11 | 0.00 | 67 | 1013.9 |
| 20260508184203 | 75 | 258 | 2.0 | 4.0 | 0.00 | 0.11 | 0.00 | 66 | 1013.9 |
| 20260508184103 | 75 | 110 | 0.0 | 3.0 | 0.00 | 0.11 | 0.00 | 66 | 1013.9 |
| 20260508184006 | 75 | 139 | 0.0 | 3.0 | 0.00 | 0.11 | 0.00 | 65 | 1013.8 |
| 20260508183901 | 75 | 146 | 0.0 | 3.0 | 0.00 | 0.11 | 0.00 | 65 | 1013.9 |
| 20260508183801 | 75 | 20 | 1.0 | 4.0 | 0.00 | 0.11 | 0.00 | 66 | 1013.9 |
| 20260508183702 | 75 | 300 | 2.0 | 5.0 | 0.00 | 0.11 | 0.00 | 65 | 1013.8 |
| 20260508183601 | 76 | 276 | 3.0 | 5.0 | 0.00 | 0.11 | 0.00 | 66 | 1013.8 |
| 20260508183504 | 76 | 280 | 0.0 | 5.0 | 0.00 | 0.11 | 0.00 | 65 | 1013.8 |
| 20260508183403 | 76 | 30 | 0.0 | 5.0 | 0.00 | 0.11 | 0.00 | 65 | 1013.9 |
| 20260508183302 | 76 | 317 | 0.0 | 5.0 | 0.00 | 0.11 | 0.00 | 66 | 1013.9 |
| 20260508183007 | 76 | 295 | 2.0 | 5.0 | 0.00 | 0.11 | 0.00 | 64 | 1014.0 |
| 20260508182902 | 76 | 322 | 3.0 | 5.0 | 0.00 | 0.11 | 0.00 | 65 | 1014.0 |
| 20260508182801 | 76 | 329 | 3.0 | 5.0 | 0.00 | 0.11 | 0.00 | 65 | 1014.0 |
| 20260508182603 | 76 | 156 | 2.0 | 5.0 | 0.00 | 0.11 | 0.00 | 64 | 1013.9 |
| 20260508182505 | 76 | 333 | 1.0 | 5.0 | 0.00 | 0.11 | 0.00 | 65 | 1013.9 |
| 20260508182401 | 76 | 352 | 2.0 | 5.0 | 0.00 | 0.11 | 0.00 | 67 | 1013.9 |
| 20260508182306 | 76 | 321 | 3.0 | 5.0 | 0.00 | 0.11 | 0.00 | 67 | 1013.9 |
| 20260508182202 | 75 | 316 | 2.0 | 5.0 | 0.00 | 0.11 | 0.00 | 66 | 1013.9 |
| 20260508182103 | 75 | 297 | 0.0 | 5.0 | 0.00 | 0.11 | 0.00 | 66 | 1013.9 |
| 20260508182005 | 75 | 331 | 3.0 | 5.0 | 0.00 | 0.11 | 0.00 | 66 | 1013.9 |
| 20260508181902 | 75 | 304 | 2.0 | 5.0 | 0.00 | 0.11 | 0.00 | 66 | 1013.9 |
| 20260508181803 | 75 | 321 | 3.0 | 5.0 | 0.00 | 0.11 | 0.00 | 67 | 1013.9 |
| 20260508181702 | 75 | 4 | 2.0 | 4.0 | 0.00 | 0.11 | 0.00 | 67 | 1013.9 |
| 20260508181506 | 75 | 249 | 1.0 | 4.0 | 0.00 | 0.11 | 0.00 | 66 | 1013.9 |
| 20260508181401 | 75 | 272 | 2.0 | 4.0 | 0.00 | 0.11 | 0.00 | 67 | 1013.9 |
| 20260508181303 | 75 | 307 | 2.0 | 4.0 | 0.00 | 0.11 | 0.00 | 66 | 1013.9 |
| 20260508181202 | 75 | 316 | 3.0 | 4.0 | 0.00 | 0.11 | 0.00 | 66 | 1013.9 |
| 20260508181102 | 75 | 333 | 2.0 | 4.0 | 0.00 | 0.11 | 0.00 | 66 | 1013.9 |
| 20260508180902 | 75 | 352 | 1.0 | 4.0 | 0.00 | 0.11 | 0.00 | 66 | 1014.0 |
| 20260508180702 | 75 | 360 | 4.0 | 4.0 | 0.00 | 0.11 | 0.00 | 66 | 1014.0 |
| 20260508180402 | 75 | 228 | 0.0 | 4.0 | 0.00 | 0.11 | 0.00 | 65 | 1014.0 |
| 20260508180301 | 75 | 274 | 2.0 | 4.0 | 0.00 | 0.11 | 0.00 | 65 | 1014.0 |
| 20260508180201 | 75 | 300 | 0.0 | 4.0 | 0.00 | 0.11 | 0.00 | 65 | 1014.1 |
| 20260508180007 | 76 | 326 | 3.0 | 4.0 | 0.00 | 0.11 | 0.00 | 64 | 1014.0 |
| 20260508175903 | 76 | 342 | 2.0 | 4.0 | 0.00 | 0.11 | 0.00 | 63 | 1014.2 |
| 20260508175803 | 76 | 328 | 0.0 | 4.0 | 0.00 | 0.11 | 0.00 | 64 | 1014.1 |
| 20260508175702 | 76 | 329 | 3.0 | 4.0 | 0.00 | 0.11 | 0.00 | 63 | 1014.1 |
| 20260508175603 | 76 | 317 | 2.0 | 4.0 | 0.00 | 0.11 | 0.00 | 63 | 1014.1 |
| 20260508175505 | 76 | 148 | 0.0 | 4.0 | 0.00 | 0.11 | 0.00 | 63 | 1014.1 |
| 20260508175402 | 77 | 283 | 2.0 | 4.0 | 0.00 | 0.11 | 0.00 | 64 | 1014.1 |
| 20260508175305 | 76 | 311 | 3.0 | 4.0 | 0.00 | 0.11 | 0.00 | 63 | 1014.0 |
| 20260508175104 | 77 | 297 | 2.0 | 4.0 | 0.00 | 0.11 | 0.00 | 63 | 1014.0 |
| 20260508175007 | 77 | 301 | 1.0 | 4.0 | 0.00 | 0.11 | 0.00 | 63 | 1014.2 |
| 20260508174904 | 76 | 317 | 2.0 | 4.0 | 0.00 | 0.11 | 0.00 | 63 | 1014.3 |
| 20260508174803 | 76 | 1 | 0.0 | 4.0 | 0.00 | 0.11 | 0.00 | 63 | 1014.3 |
| 20260508174703 | 76 | 286 | 3.0 | 4.0 | 0.00 | 0.11 | 0.00 | 63 | 1014.4 |
| 20260508174505 | 76 | 1 | 2.0 | 4.0 | 0.00 | 0.11 | 0.00 | 63 | 1014.4 |
| 20260508174403 | 76 | 267 | 2.0 | 4.0 | 0.00 | 0.11 | 0.00 | 64 | 1014.4 |
| 20260508174303 | 76 | 316 | 0.0 | 4.0 | 0.00 | 0.11 | 0.00 | 66 | 1014.4 |
| 20260508174204 | 75 | 307 | 3.0 | 4.0 | 0.00 | 0.11 | 0.00 | 64 | 1014.4 |
| 20260508174103 | 75 | 282 | 2.0 | 4.0 | 0.00 | 0.11 | 0.00 | 64 | 1014.4 |
| 20260508174013 | 75 | 338 | 1.0 | 4.0 | 0.00 | 0.11 | 0.00 | 63 | 1014.4 |
| 20260508173903 | 75 | 303 | 1.0 | 4.0 | 0.00 | 0.11 | 0.00 | 63 | 1014.5 |
| 20260508173803 | 76 | 227 | 0.0 | 4.0 | 0.00 | 0.11 | 0.00 | 63 | 1014.5 |
| 20260508173703 | 76 | 338 | 0.0 | 4.0 | 0.00 | 0.11 | 0.00 | 64 | 1014.5 |
| 20260508173603 | 76 | 50 | 0.0 | 4.0 | 0.00 | 0.11 | 0.00 | 63 | 1014.5 |
| 20260508173506 | 76 | 309 | 3.0 | 4.0 | 0.00 | 0.11 | 0.00 | 62 | 1014.5 |
| 20260508173303 | 76 | 231 | 1.0 | 4.0 | 0.00 | 0.11 | 0.00 | 61 | 1014.5 |
| 20260508173203 | 77 | 136 | 0.0 | 4.0 | 0.00 | 0.11 | 0.00 | 61 | 1014.5 |
| 20260508173102 | 77 | 333 | 3.0 | 4.0 | 0.00 | 0.11 | 0.00 | 61 | 1014.4 |
| 20260508172903 | 76 | 322 | 2.0 | 4.0 | 0.00 | 0.11 | 0.00 | 64 | 1014.4 |
| 20260508172803 | 76 | 340 | 3.0 | 4.0 | 0.00 | 0.11 | 0.00 | 64 | 1014.5 |
| 20260508172603 | 76 | 236 | 2.0 | 4.0 | 0.00 | 0.11 | 0.00 | 63 | 1014.4 |
| 20260508172505 | 76 | 184 | 0.0 | 4.0 | 0.00 | 0.11 | 0.00 | 64 | 1014.3 |
| 20260508172402 | 76 | 280 | 2.0 | 4.0 | 0.00 | 0.11 | 0.00 | 63 | 1014.4 |
| 20260508172306 | 76 | 311 | 1.0 | 4.0 | 0.00 | 0.11 | 0.00 | 63 | 1014.5 |
| 20260508172203 | 76 | 290 | 3.0 | 4.0 | 0.00 | 0.11 | 0.00 | 63 | 1014.4 |
| 20260508172103 | 76 | 322 | 2.0 | 4.0 | 0.00 | 0.11 | 0.00 | 61 | 1014.5 |
| 20260508172006 | 76 | 356 | 0.0 | 4.0 | 0.00 | 0.11 | 0.00 | 63 | 1014.5 |
| 20260508171904 | 76 | 303 | 2.0 | 5.0 | 0.00 | 0.11 | 0.00 | 63 | 1014.4 |
| 20260508171803 | 76 | 274 | 3.0 | 5.0 | 0.00 | 0.11 | 0.00 | 64 | 1014.4 |
| 20260508171703 | 76 | 273 | 0.0 | 5.0 | 0.00 | 0.11 | 0.00 | 63 | 1014.5 |
| 20260508171603 | 75 | 302 | 0.0 | 5.0 | 0.00 | 0.11 | 0.00 | 63 | 1014.5 |
| 20260508171506 | 76 | 249 | 3.0 | 5.0 | 0.00 | 0.11 | 0.00 | 62 | 1014.5 |
| 20260508171403 | 76 | 158 | 0.0 | 5.0 | 0.00 | 0.11 | 0.00 | 62 | 1014.6 |
| 20260508171303 | 75 | 233 | 2.0 | 5.0 | 0.00 | 0.11 | 0.00 | 63 | 1014.6 |
| 20260508171202 | 75 | 131 | 3.0 | 5.0 | 0.00 | 0.11 | 0.00 | 62 | 1014.6 |
| 20260508171104 | 76 | 153 | 2.0 | 5.0 | 0.00 | 0.11 | 0.00 | 62 | 1014.6 |
| 20260508171006 | 76 | 285 | 1.0 | 4.0 | 0.00 | 0.11 | 0.00 | 62 | 1014.6 |
| 20260508170902 | 76 | 243 | 0.0 | 4.0 | 0.00 | 0.11 | 0.00 | 63 | 1014.6 |
| 20260508170804 | 75 | 314 | 3.0 | 4.0 | 0.00 | 0.11 | 0.00 | 62 | 1014.7 |
| 20260508170603 | 75 | 245 | 3.0 | 4.0 | 0.00 | 0.11 | 0.00 | 63 | 1014.6 |
| 20260508170505 | 75 | 255 | 4.0 | 4.0 | 0.00 | 0.11 | 0.00 | 62 | 1014.6 |
| 20260508170303 | 76 | 321 | 3.0 | 4.0 | 0.00 | 0.11 | 0.00 | 62 | 1014.7 |
| 20260508165803 | 76 | 236 | 0.0 | 5.0 | 0.00 | 0.21 | 0.00 | 61 | 1014.6 |
| 20260508165702 | 76 | 177 | 0.0 | 5.0 | 0.00 | 0.21 | 0.00 | 63 | 1014.7 |
| 20260508165602 | 76 | 284 | 1.0 | 5.0 | 0.00 | 0.21 | 0.00 | 61 | 1014.6 |
| 20260508165505 | 76 | 293 | 2.0 | 5.0 | 0.00 | 0.21 | 0.00 | 63 | 1014.6 |
| 20260508165401 | 76 | 6 | 3.0 | 5.0 | 0.00 | 0.21 | 0.00 | 63 | 1014.6 |
| 20260508165301 | 76 | 338 | 4.0 | 5.0 | 0.00 | 0.21 | 0.00 | 62 | 1014.5 |
| 20260508165103 | 76 | 14 | 4.0 | 5.0 | 0.00 | 0.21 | 0.00 | 61 | 1014.5 |
| 20260508165005 | 76 | 286 | 3.0 | 5.0 | 0.00 | 0.21 | 0.00 | 62 | 1014.5 |
| 20260508164902 | 76 | 250 | 3.0 | 5.0 | 0.00 | 0.21 | 0.00 | 61 | 1014.7 |
| 20260508164802 | 76 | 321 | 0.0 | 5.0 | 0.00 | 0.21 | 0.00 | 61 | 1014.7 |
| 20260508164701 | 76 | 345 | 3.0 | 5.0 | 0.00 | 0.21 | 0.00 | 61 | 1014.7 |
| 20260508164505 | 76 | 360 | 0.0 | 5.0 | 0.00 | 0.21 | 0.00 | 62 | 1014.8 |
| 20260508164402 | 76 | 30 | 4.0 | 5.0 | 0.00 | 0.21 | 0.00 | 63 | 1014.8 |
| 20260508164201 | 76 | 252 | 2.0 | 5.0 | 0.00 | 0.21 | 0.00 | 63 | 1014.7 |
| 20260508164102 | 76 | 295 | 3.0 | 5.0 | 0.00 | 0.21 | 0.00 | 62 | 1014.8 |
| 20260508164005 | 76 | 311 | 2.0 | 5.0 | 0.00 | 0.21 | 0.00 | 61 | 1014.8 |
| 20260508163902 | 76 | 251 | 3.0 | 5.0 | 0.00 | 0.21 | 0.00 | 63 | 1014.9 |
| 20260508163802 | 76 | 321 | 2.0 | 5.0 | 0.00 | 0.21 | 0.00 | 64 | 1014.8 |
| 20260508163702 | 75 | 259 | 2.0 | 5.0 | 0.00 | 0.21 | 0.00 | 63 | 1014.9 |
| 20260508163601 | 75 | 292 | 2.0 | 5.0 | 0.00 | 0.21 | 0.00 | 64 | 1014.8 |
| 20260508163505 | 75 | 252 | 1.0 | 5.0 | 0.00 | 0.21 | 0.00 | 63 | 1014.8 |
| 20260508163401 | 75 | 335 | 2.0 | 4.0 | 0.00 | 0.21 | 0.00 | 63 | 1014.9 |
| 20260508163302 | 75 | 277 | 2.0 | 4.0 | 0.00 | 0.21 | 0.00 | 65 | 1015.0 |
| 20260508163202 | 74 | 307 | 3.0 | 4.0 | 0.00 | 0.21 | 0.00 | 63 | 1015.0 |
| 20260508163101 | 75 | 248 | 0.0 | 5.0 | 0.00 | 0.21 | 0.00 | 64 | 1015.2 |
| 20260508163006 | 75 | 288 | 2.0 | 5.0 | 0.00 | 0.21 | 0.00 | 64 | 1015.2 |
| 20260508162902 | 75 | 307 | 2.0 | 5.0 | 0.00 | 0.21 | 0.00 | 63 | 1015.3 |
| 20260508162702 | 75 | 314 | 2.0 | 5.0 | 0.00 | 0.21 | 0.00 | 63 | 1015.3 |
| 20260508162601 | 75 | 301 | 2.0 | 5.0 | 0.00 | 0.21 | 0.00 | 63 | 1015.3 |
| 20260508162505 | 75 | 242 | 2.0 | 5.0 | 0.00 | 0.21 | 0.00 | 63 | 1015.3 |
| 20260508162401 | 75 | 297 | 2.0 | 6.0 | 0.00 | 0.21 | 0.00 | 63 | 1015.3 |
| 20260508162306 | 75 | 6 | 4.0 | 6.0 | 0.00 | 0.21 | 0.00 | 63 | 1015.2 |
| 20260508162201 | 75 | 281 | 2.0 | 9.0 | 0.00 | 0.21 | 0.00 | 63 | 1015.2 |
| 20260508162102 | 75 | 280 | 3.0 | 9.0 | 0.00 | 0.21 | 0.00 | 64 | 1015.2 |
| 20260508162005 | 75 | 296 | 1.0 | 9.0 | 0.00 | 0.21 | 0.00 | 64 | 1015.2 |
| 20260508161902 | 75 | 254 | 3.0 | 9.0 | 0.00 | 0.21 | 0.00 | 63 | 1015.2 |
| 20260508161802 | 75 | 338 | 2.0 | 9.0 | 0.00 | 0.21 | 0.00 | 64 | 1015.1 |
| 20260508161701 | 74 | 271 | 4.0 | 9.0 | 0.00 | 0.21 | 0.00 | 63 | 1015.1 |
| 20260508161602 | 74 | 216 | 3.0 | 9.0 | 0.00 | 0.21 | 0.00 | 62 | 1015.1 |
| 20260508161505 | 75 | 148 | 4.0 | 9.0 | 0.00 | 0.21 | 0.00 | 62 | 1015.2 |
| 20260508161401 | 75 | 155 | 1.0 | 9.0 | 0.00 | 0.21 | 0.00 | 61 | 1015.2 |
| 20260508161201 | 75 | 98 | 8.0 | 8.0 | 0.00 | 0.21 | 0.00 | 61 | 1015.2 |
| 20260508161006 | 76 | 59 | 1.0 | 6.0 | 0.00 | 0.21 | 0.00 | 62 | 1015.3 |
| 20260508160902 | 76 | 336 | 2.0 | 8.0 | 0.00 | 0.21 | 0.00 | 64 | 1015.3 |
| 20260508160802 | 75 | 267 | 3.0 | 8.0 | 0.00 | 0.21 | 0.00 | 65 | 1015.4 |
| 20260508160505 | 74 | 179 | 3.0 | 8.0 | 0.00 | 0.21 | 0.00 | 63 | 1015.4 |
| 20260508160302 | 74 | 41 | 3.0 | 8.0 | 0.00 | 0.21 | 0.00 | 63 | 1015.4 |
| 20260508160007 | 75 | 321 | 0.0 | 6.0 | 0.00 | 0.21 | 0.00 | 64 | 1015.5 |
| 20260508155802 | 74 | 258 | 3.0 | 8.0 | 0.00 | 0.30 | 0.00 | 63 | 1015.5 |
| 20260508155703 | 74 | 356 | 3.0 | 8.0 | 0.00 | 0.30 | 0.00 | 64 | 1015.5 |
| 20260508155603 | 74 | 360 | 0.0 | 8.0 | 0.00 | 0.30 | 0.00 | 63 | 1015.5 |
| 20260508155505 | 74 | 340 | 2.0 | 8.0 | 0.00 | 0.30 | 0.00 | 65 | 1015.6 |
| 20260508155203 | 74 | 186 | 3.0 | 8.0 | 0.00 | 0.30 | 0.00 | 64 | 1015.7 |
| 20260508155103 | 74 | 236 | 2.0 | 8.0 | 0.00 | 0.30 | 0.00 | 64 | 1015.7 |
| 20260508155006 | 74 | 302 | 2.0 | 8.0 | 0.00 | 0.30 | 0.00 | 63 | 1015.7 |
| 20260508154803 | 74 | 340 | 0.0 | 5.0 | 0.00 | 0.30 | 0.00 | 63 | 1015.8 |
| 20260508154703 | 74 | 134 | 0.0 | 5.0 | 0.00 | 0.30 | 0.00 | 65 | 1015.8 |
| 20260508154603 | 74 | 356 | 1.0 | 5.0 | 0.00 | 0.30 | 0.00 | 63 | 1015.9 |
| 20260508154505 | 74 | 117 | 2.0 | 5.0 | 0.00 | 0.30 | 0.00 | 63 | 1015.9 |
| 20260508154403 | 74 | 212 | 1.0 | 5.0 | 0.00 | 0.30 | 0.00 | 63 | 1015.9 |
| 20260508154302 | 74 | 298 | 0.0 | 5.0 | 0.00 | 0.30 | 0.00 | 64 | 1015.9 |
| 20260508154202 | 74 | 326 | 2.0 | 5.0 | 0.00 | 0.30 | 0.00 | 64 | 1015.9 |
| 20260508154103 | 74 | 352 | 4.0 | 5.0 | 0.00 | 0.30 | 0.00 | 64 | 1015.9 |
| 20260508154007 | 74 | 352 | 4.0 | 4.0 | 0.00 | 0.30 | 0.00 | 65 | 1015.9 |
| 20260508153704 | 73 | 338 | 2.0 | 8.0 | 0.00 | 0.30 | 0.00 | 67 | 1016.0 |
| 20260508153603 | 73 | 347 | 2.0 | 8.0 | 0.00 | 0.30 | 0.00 | 66 | 1015.9 |
| 20260508153505 | 73 | 324 | 1.0 | 8.0 | 0.00 | 0.30 | 0.00 | 66 | 1015.9 |
| 20260508153402 | 73 | 247 | 0.0 | 8.0 | 0.00 | 0.30 | 0.00 | 65 | 1015.9 |
| 20260508153303 | 73 | 353 | 1.0 | 8.0 | 0.00 | 0.30 | 0.00 | 65 | 1016.0 |
| 20260508153203 | 73 | 302 | 2.0 | 8.0 | 0.00 | 0.30 | 0.00 | 65 | 1015.9 |
| 20260508153103 | 73 | 307 | 3.0 | 8.0 | 0.00 | 0.30 | 0.00 | 65 | 1015.9 |
| 20260508153006 | 73 | 328 | 3.0 | 8.0 | 0.00 | 0.30 | 0.00 | 66 | 1015.9 |
| 20260508152902 | 73 | 31 | 2.0 | 6.0 | 0.00 | 0.30 | 0.00 | 65 | 1015.8 |
| 20260508152803 | 73 | 312 | 4.0 | 6.0 | 0.00 | 0.30 | 0.00 | 66 | 1015.9 |
| 20260508152703 | 73 | 323 | 3.0 | 6.0 | 0.00 | 0.30 | 0.00 | 67 | 1015.9 |
| 20260508152602 | 73 | 310 | 2.0 | 6.0 | 0.00 | 0.30 | 0.00 | 67 | 1015.9 |
| 20260508152505 | 73 | 316 | 6.0 | 6.0 | 0.00 | 0.30 | 0.00 | 68 | 1015.9 |
| 20260508152402 | 73 | 288 | 2.0 | 5.0 | 0.00 | 0.30 | 0.00 | 68 | 1015.8 |
| 20260508152305 | 73 | 337 | 2.0 | 5.0 | 0.00 | 0.30 | 0.00 | 68 | 1015.8 |
| 20260508152203 | 73 | 297 | 0.0 | 655.0 | 1.42 | 0.95 | 0.00 | 68 | |
| 20260508152104 | 73 | 319 | 3.0 | 6.0 | 0.00 | 0.30 | 0.00 | 67 | 1015.8 |
| 20260508152006 | 73 | 340 | 3.0 | 6.0 | 0.00 | 0.30 | 0.00 | 68 | 1015.8 |
| 20260508151903 | 73 | 307 | 1.0 | 6.0 | 0.00 | 0.30 | 0.00 | 68 | 1015.8 |
| 20260508151802 | 73 | 304 | 0.0 | 6.0 | 0.00 | 0.30 | 0.00 | 68 | 1015.8 |
| 20260508151702 | 73 | 266 | 2.0 | 6.0 | 0.00 | 0.30 | 0.00 | 67 | 1015.9 |
| 20260508151505 | 73 | 290 | 4.0 | 6.0 | 0.00 | 0.30 | 0.00 | 67 | 1015.9 |
| 20260508151403 | 73 | 307 | 0.0 | 6.0 | 0.00 | 0.30 | 0.00 | 66 | 1015.9 |
| 20260508151304 | 73 | 141 | 2.0 | 6.0 | 0.00 | 0.30 | 0.00 | 68 | 1015.9 |
| 20260508151204 | 72 | 351 | 2.0 | 6.0 | 0.00 | 0.30 | 0.00 | 67 | 1015.9 |
| 20260508151103 | 72 | 296 | 3.0 | 6.0 | 0.00 | 0.30 | 0.00 | 67 | 1015.8 |
| 20260508151006 | 72 | 310 | 3.0 | 6.0 | 0.00 | 0.30 | 0.00 | 66 | 1015.8 |
| 20260508150903 | 72 | 209 | 0.0 | 6.0 | 0.00 | 0.30 | 0.00 | 66 | 1015.8 |
| 20260508150802 | 72 | 174 | 2.0 | 6.0 | 0.00 | 0.30 | 0.00 | 65 | 1015.8 |
| 20260508150703 | 73 | 340 | 0.0 | 6.0 | 0.00 | 0.30 | 0.00 | 65 | 1015.8 |
| 20260508150605 | 73 | 125 | 5.0 | 6.0 | 0.00 | 0.30 | 0.00 | 65 | 1015.7 |
| 20260508150505 | 73 | 283 | 2.0 | 5.0 | 0.00 | 0.30 | 0.00 | 66 | 1015.7 |
| 20260508150403 | 73 | 19 | 1.0 | 5.0 | 0.00 | 0.30 | 0.00 | 67 | 1015.7 |
| 20260508150303 | 73 | 295 | 3.0 | 5.0 | 0.00 | 0.30 | 0.00 | 67 | 1015.7 |
| 20260508150006 | 72 | 326 | 1.0 | 5.0 | 0.00 | 0.36 | 0.00 | 67 | 1015.9 |
| 20260508145802 | 72 | 298 | 3.0 | 6.0 | 0.00 | 0.36 | 0.00 | 67 | 1015.8 |
| 20260508145701 | 72 | 279 | 1.0 | 6.0 | 0.00 | 0.36 | 0.00 | 67 | 1015.7 |
| 20260508145505 | 72 | 135 | 4.0 | 6.0 | 0.00 | 0.36 | 0.00 | 66 | 1015.7 |
| 20260508145403 | 72 | 77 | 3.0 | 6.0 | 0.00 | 0.36 | 0.00 | 67 | 1015.8 |
| 20260508145306 | 72 | 288 | 2.0 | 6.0 | 0.00 | 0.36 | 0.00 | 67 | 1015.8 |
| 20260508145201 | 72 | 155 | 1.0 | 6.0 | 0.00 | 0.36 | 0.00 | 67 | 1015.9 |
| 20260508145103 | 72 | 333 | 3.0 | 6.0 | 0.00 | 0.36 | 0.00 | 67 | 1015.8 |
| 20260508145005 | 72 | 243 | 3.0 | 6.0 | 0.00 | 0.36 | 0.00 | 67 | 1015.8 |
| 20260508144901 | 72 | 5 | 3.0 | 6.0 | 0.00 | 0.36 | 0.00 | 67 | 1015.8 |
| 20260508144801 | 71 | 297 | 3.0 | 6.0 | 0.00 | 0.36 | 0.00 | 67 | 1015.8 |
| 20260508144702 | 71 | 153 | 0.0 | 6.0 | 0.00 | 0.36 | 0.00 | 66 | 1015.9 |
| 20260508144602 | 71 | 286 | 3.0 | 9.0 | 0.00 | 0.36 | 0.00 | 67 | 1015.8 |
| 20260508144505 | 71 | 296 | 1.0 | 9.0 | 0.00 | 0.36 | 0.00 | 67 | 1015.8 |
| 20260508144402 | 71 | 158 | 2.0 | 9.0 | 0.00 | 0.36 | 0.00 | 68 | 1015.7 |
| 20260508144201 | 71 | 342 | 0.0 | 9.0 | 0.00 | 0.36 | 0.00 | 69 | 1015.7 |
| 20260508144101 | 71 | 68 | 1.0 | 9.0 | 0.00 | 0.36 | 0.00 | 69 | 1015.7 |
| 20260508144006 | 71 | 203 | 2.0 | 9.0 | 0.00 | 0.36 | 0.00 | 69 | 1015.7 |
| 20260508143902 | 71 | 300 | 3.0 | 9.0 | 0.00 | 0.36 | 0.00 | 69 | 1015.7 |
| 20260508143602 | 71 | 316 | 3.0 | 5.0 | 0.00 | 0.36 | 0.00 | 70 | 1015.7 |
| 20260508143505 | 71 | 307 | 2.0 | 5.0 | 0.00 | 0.36 | 0.00 | 70 | 1015.9 |
| 20260508143403 | 71 | 286 | 3.0 | 5.0 | 0.00 | 0.36 | 0.00 | 72 | 1015.9 |
| 20260508143302 | 71 | 309 | 3.0 | 5.0 | 0.00 | 0.36 | 0.00 | 72 | 1015.9 |
| 20260508143202 | 70 | 249 | 3.0 | 7.0 | 0.00 | 0.36 | 0.00 | 71 | 1016.0 |
| 20260508143102 | 70 | 326 | 3.0 | 7.0 | 0.00 | 0.36 | 0.00 | 71 | 1015.9 |
| 20260508143006 | 70 | 347 | 3.0 | 7.0 | 0.00 | 0.36 | 0.00 | 71 | 1016.0 |
| 20260508142902 | 70 | 321 | 2.0 | 7.0 | 0.00 | 0.36 | 0.00 | 72 | 1016.0 |
| 20260508142801 | 70 | 257 | 4.0 | 7.0 | 0.00 | 0.36 | 0.00 | 72 | 1016.0 |
| 20260508142702 | 70 | 302 | 2.0 | 7.0 | 0.00 | 0.36 | 0.00 | 72 | 1016.0 |
| 20260508142602 | 70 | 328 | 1.0 | 7.0 | 0.00 | 0.36 | 0.00 | 73 | 1016.0 |
| 20260508142505 | 70 | 314 | 0.0 | 7.0 | 0.00 | 0.36 | 0.00 | 73 | 1016.0 |
| 20260508142402 | 70 | 27 | 3.0 | 7.0 | 0.00 | 0.36 | 0.00 | 72 | 1016.1 |
| 20260508142301 | 70 | 314 | 5.0 | 6.0 | 0.00 | 0.36 | 0.00 | 72 | 1016.1 |
| 20260508142202 | 70 | 293 | 2.0 | 5.0 | 0.00 | 0.36 | 0.00 | 73 | 1016.1 |
| 20260508142102 | 70 | 282 | 3.0 | 5.0 | 0.00 | 0.36 | 0.00 | 73 | 1016.1 |
| 20260508142005 | 70 | 326 | 2.0 | 5.0 | 0.00 | 0.36 | 0.00 | 73 | 1016.1 |
| 20260508141602 | 70 | 352 | 2.0 | 5.0 | 0.00 | 0.36 | 0.00 | 73 | 1016.0 |
| 20260508141505 | 70 | 269 | 3.0 | 5.0 | 0.00 | 0.36 | 0.00 | 73 | 1016.0 |
| 20260508141302 | 70 | 271 | 1.0 | 5.0 | 0.00 | 0.36 | 0.00 | 75 | 1016.0 |
| 20260508141006 | 69 | 295 | 2.0 | 5.0 | 0.00 | 0.36 | 0.00 | 77 | 1016.1 |
| 20260508140901 | 69 | 11 | 3.0 | 5.0 | 0.00 | 0.36 | 0.00 | 77 | 1016.2 |
| 20260508140701 | 68 | 348 | 2.0 | 4.0 | 0.00 | 0.36 | 0.00 | 77 | 1016.1 |
| 20260508140603 | 68 | 6 | 3.0 | 4.0 | 0.00 | 0.36 | 0.00 | 77 | 1016.1 |
| 20260508140401 | 68 | 353 | 0.0 | 9.0 | 0.00 | 0.36 | 0.00 | 77 | 1016.1 |
| 20260508140201 | 68 | 164 | 2.0 | 9.0 | 0.00 | 0.36 | 0.00 | 77 | 1016.1 |
| 20260508140005 | 68 | 328 | 1.0 | 9.0 | 0.00 | 0.46 | 0.00 | 77 | 1016.0 |
| 20260508135902 | 68 | 319 | 0.0 | 9.0 | 0.00 | 0.46 | 0.00 | 77 | 1016.0 |
| 20260508135702 | 68 | 153 | 0.0 | 9.0 | 0.00 | 0.46 | 0.00 | 78 | 1016.1 |
| 20260508135505 | 68 | 319 | 3.0 | 9.0 | 0.00 | 0.46 | 0.00 | 78 | 1016.0 |
| 20260508135401 | 68 | 331 | 4.0 | 6.0 | 0.00 | 0.46 | 0.00 | 79 | 1016.0 |
| 20260508135305 | 68 | 326 | 2.0 | 6.0 | 0.00 | 0.46 | 0.00 | 79 | 1016.1 |
| 20260508135201 | 67 | 309 | 0.0 | 6.0 | 0.00 | 0.46 | 0.00 | 79 | 1016.1 |
| 20260508135102 | 67 | 46 | 0.0 | 6.0 | 0.00 | 0.46 | 0.00 | 79 | 1016.1 |
| 20260508135006 | 67 | 340 | 0.0 | 6.0 | 0.00 | 0.46 | 0.00 | 79 | 1016.1 |
| 20260508134901 | 67 | 319 | 0.0 | 6.0 | 0.00 | 0.46 | 0.00 | 79 | 1016.0 |
| 20260508134801 | 67 | 330 | 3.0 | 6.0 | 0.00 | 0.46 | 0.00 | 79 | 1016.1 |
| 20260508134703 | 67 | 317 | 0.0 | 6.0 | 0.00 | 0.46 | 0.00 | 79 | 1016.0 |
| 20260508134602 | 67 | 319 | 0.0 | 6.0 | 0.00 | 0.46 | 0.00 | 79 | 1016.0 |
| 20260508134505 | 67 | 316 | 4.0 | 5.0 | 0.00 | 0.46 | 0.00 | 79 | 1016.0 |
| 20260508134401 | 67 | 32 | 2.0 | 4.0 | 0.00 | 0.46 | 0.00 | 79 | 1016.0 |
| 20260508134302 | 67 | 328 | 1.0 | 4.0 | 0.00 | 0.46 | 0.00 | 79 | 1016.0 |
| 20260508134102 | 67 | 307 | 2.0 | 4.0 | 0.00 | 0.46 | 0.00 | 80 | 1016.0 |
| 20260508134005 | 67 | 29 | 3.0 | 3.0 | 0.00 | 0.46 | 0.00 | 80 | 1016.0 |
| 20260508133902 | 67 | 87 | 0.0 | 3.0 | 0.00 | 0.46 | 0.00 | 80 | 1016.0 |
| 20260508133802 | 67 | 321 | 0.0 | 3.0 | 0.00 | 0.46 | 0.00 | 80 | 1016.1 |
| 20260508133702 | 67 | 309 | 0.0 | 3.0 | 0.00 | 0.46 | 0.00 | 80 | 1016.0 |
| 20260508133604 | 67 | 338 | 0.0 | 3.0 | 0.00 | 0.46 | 0.00 | 80 | 1016.0 |
| 20260508133504 | 67 | 198 | 1.0 | 3.0 | 0.00 | 0.46 | 0.00 | 80 | 1016.0 |
| 20260508133302 | 67 | 34 | 0.0 | 3.0 | 0.00 | 0.46 | 0.00 | 80 | 1016.1 |
| 20260508133202 | 67 | 323 | 0.0 | 3.0 | 0.00 | 0.46 | 0.00 | 80 | 1016.0 |
| 20260508133103 | 67 | 330 | 0.0 | 3.0 | 0.00 | 0.46 | 0.00 | 80 | 1016.0 |
| 20260508133005 | 67 | 352 | 2.0 | 3.0 | 0.00 | 0.46 | 0.00 | 81 | 1016.0 |
| 20260508132902 | 67 | 355 | 2.0 | 3.0 | 0.00 | 0.46 | 0.00 | 80 | 1016.0 |
| 20260508132801 | 67 | 30 | 0.0 | 3.0 | 0.00 | 0.46 | 0.00 | 80 | 1015.9 |
| 20260508132702 | 67 | 339 | 2.0 | 3.0 | 0.00 | 0.46 | 0.00 | 81 | 1016.0 |
| 20260508132601 | 66 | 274 | 0.0 | 3.0 | 0.00 | 0.46 | 0.00 | 81 | 1016.0 |
| 20260508132505 | 67 | 342 | 0.0 | 3.0 | 0.00 | 0.46 | 0.00 | 81 | 1016.0 |
| 20260508132401 | 66 | 319 | 0.0 | 3.0 | 0.00 | 0.46 | 0.00 | 81 | 1015.9 |
| 20260508132306 | 66 | 338 | 1.0 | 3.0 | 0.00 | 0.46 | 0.00 | 81 | 1016.0 |
| 20260508132202 | 66 | 323 | 0.0 | 4.0 | 0.00 | 0.46 | 0.00 | 81 | 1016.0 |
| 20260508132102 | 66 | 17 | 0.0 | 4.0 | 0.00 | 0.46 | 0.00 | 81 | 1015.9 |
| 20260508132005 | 66 | 356 | 2.0 | 4.0 | 0.00 | 0.46 | 0.00 | 81 | 1015.9 |
| 20260508131902 | 66 | 1 | 1.0 | 4.0 | 0.00 | 0.46 | 0.00 | 81 | 1016.0 |
| 20260508131802 | 66 | 325 | 0.0 | 4.0 | 0.00 | 0.46 | 0.00 | 81 | 1016.0 |
| 20260508131702 | 66 | 321 | 0.0 | 4.0 | 0.00 | 0.46 | 0.00 | 81 | 1016.0 |
| 20260508131602 | 66 | 321 | 0.0 | 6.0 | 0.00 | 0.46 | 0.00 | 81 | 1015.8 |
| 20260508131505 | 66 | 338 | 0.0 | 6.0 | 0.00 | 0.46 | 0.00 | 82 | 1015.8 |
| 20260508131403 | 66 | 351 | 0.0 | 6.0 | 0.00 | 0.46 | 0.00 | 81 | 1015.8 |
| 20260508131302 | 66 | 337 | 2.0 | 6.0 | 0.00 | 0.46 | 0.00 | 82 | 1015.9 |
| 20260508131202 | 66 | 304 | 0.0 | 6.0 | 0.00 | 0.46 | 0.00 | 82 | 1015.9 |
| 20260508131102 | 66 | 137 | 1.0 | 6.0 | 0.00 | 0.46 | 0.00 | 82 | 1015.8 |
| 20260508131005 | 66 | 251 | 0.0 | 6.0 | 0.00 | 0.46 | 0.00 | 82 | 1015.8 |
| 20260508130902 | 66 | 342 | 0.0 | 6.0 | 0.00 | 0.46 | 0.00 | 81 | 1015.8 |
| 20260508130702 | 66 | 307 | 0.0 | 3.0 | 0.00 | 0.46 | 0.00 | 82 | 1015.8 |
| 20260508130403 | 66 | 323 | 0.0 | 4.0 | 0.00 | 0.46 | 0.00 | 82 | 1015.7 |
| 20260508130301 | 66 | 330 | 1.0 | 4.0 | 0.00 | 0.46 | 0.00 | 82 | 1015.8 |
| 20260508130202 | 66 | 193 | 2.0 | 4.0 | 0.00 | 0.46 | 0.00 | 82 | 1015.6 |
| 20260508130007 | 66 | 240 | 0.0 | 4.0 | 0.00 | 0.46 | 0.00 | 82 | 1015.7 |
| 20260508125902 | 66 | 188 | 0.0 | 4.0 | 0.00 | 1.04 | 0.00 | 82 | 1015.6 |
| 20260508125802 | 66 | 37 | 0.0 | 4.0 | 0.00 | 1.04 | 0.00 | 83 | 1015.6 |
| 20260508125602 | 66 | 183 | 1.0 | 5.0 | 0.00 | 1.04 | 0.00 | 82 | 1015.6 |
| 20260508125402 | 66 | 47 | 0.0 | 5.0 | 0.00 | 1.04 | 0.00 | 83 | 1015.7 |
| 20260508125305 | 66 | 47 | 0.0 | 5.0 | 0.00 | 1.04 | 0.00 | 83 | 1015.6 |
| 20260508125202 | 66 | 47 | 0.0 | 5.0 | 0.00 | 1.04 | 0.00 | 83 | 1015.7 |
| 20260508125102 | 66 | 37 | 1.0 | 5.0 | 0.00 | 1.04 | 0.00 | 83 | 1015.5 |
| 20260508124902 | 66 | 24 | 0.0 | 6.0 | 0.00 | 1.04 | 0.00 | 83 | 1015.4 |
| 20260508124803 | 66 | 330 | 3.0 | 6.0 | 0.00 | 1.04 | 0.00 | 83 | 1015.4 |
| 20260508124704 | 66 | 224 | 1.0 | 6.0 | 0.00 | 1.04 | 0.00 | 83 | 1015.4 |
| 20260508124602 | 66 | 186 | 3.0 | 6.0 | 0.00 | 1.04 | 0.00 | 83 | 1015.2 |
| 20260508124403 | 65 | 360 | 0.0 | 6.0 | 0.00 | 1.04 | 0.00 | 83 | 1015.1 |
| 20260508124303 | 65 | 319 | 1.0 | 6.0 | 0.00 | 1.04 | 0.00 | 83 | 1014.9 |
| 20260508124202 | 65 | 141 | 0.0 | 6.0 | 0.00 | 1.04 | 0.00 | 84 | 1015.0 |
| 20260508124102 | 65 | 122 | 3.0 | 6.0 | 0.00 | 1.04 | 0.00 | 84 | 1015.0 |
| 20260508124005 | 65 | 223 | 0.0 | 6.0 | 0.00 | 1.04 | 0.00 | 84 | 1015.0 |
| 20260508123902 | 65 | 219 | 1.0 | 5.0 | 0.00 | 1.04 | 0.00 | 84 | 1015.0 |
| 20260508123802 | 65 | 139 | 2.0 | 5.0 | 0.00 | 1.04 | 0.00 | 84 | 1015.1 |
| 20260508123702 | 65 | 150 | 0.0 | 6.0 | 0.00 | 1.04 | 0.00 | 84 | 1015.2 |
| 20260508123602 | 65 | 162 | 2.0 | 6.0 | 0.00 | 1.04 | 0.00 | 85 | 1015.3 |
| 20260508123505 | 65 | 75 | 0.0 | 6.0 | 0.00 | 1.04 | 0.00 | 85 | 1015.3 |
| 20260508123303 | 65 | 137 | 1.0 | 6.0 | 0.00 | 1.04 | 0.00 | 85 | 1015.3 |
| 20260508123103 | 65 | 330 | 0.0 | 6.0 | 0.00 | 1.04 | 0.00 | 85 | 1015.4 |
| 20260508123006 | 65 | 321 | 0.0 | 6.0 | 0.00 | 1.04 | 0.00 | 85 | 1015.4 |
| 20260508122903 | 65 | 150 | 0.0 | 6.0 | 0.00 | 1.04 | 0.00 | 85 | 1015.5 |
| 20260508122702 | 65 | 148 | 2.0 | 3.0 | 0.00 | 1.04 | 0.00 | 86 | 1015.6 |
| 20260508122602 | 65 | 113 | 0.0 | 3.0 | 0.00 | 1.04 | 0.00 | 86 | 1015.6 |
| 20260508122505 | 65 | 172 | 0.0 | 3.0 | 0.00 | 1.04 | 0.00 | 86 | 1015.6 |
| 20260508122402 | 65 | 48 | 1.0 | 3.0 | 0.00 | 1.04 | 0.00 | 86 | 1015.6 |
| 20260508122302 | 65 | 165 | 0.0 | 3.0 | 0.00 | 1.04 | 0.00 | 86 | 1015.6 |
| 20260508122102 | 65 | 10 | 1.0 | 3.0 | 0.00 | 1.04 | 0.00 | 87 | 1015.6 |
| 20260508121902 | 65 | 323 | 0.0 | 3.0 | 0.00 | 1.04 | 0.00 | 87 | 1015.7 |
| 20260508121801 | 65 | 323 | 0.0 | 3.0 | 0.00 | 1.04 | 0.00 | 87 | 1015.7 |
| 20260508121702 | 65 | 252 | 0.0 | 3.0 | 0.00 | 1.04 | 0.00 | 87 | 1015.7 |
| 20260508121602 | 65 | 158 | 2.0 | 2.0 | 0.00 | 1.04 | 0.00 | 87 | 1015.7 |
| 20260508121506 | 65 | 236 | 0.0 | 2.0 | 0.00 | 1.04 | 0.00 | 87 | 1015.7 |
| 20260508121402 | 65 | 225 | 1.0 | 2.0 | 0.00 | 1.04 | 0.00 | 87 | 1015.8 |
| 20260508121201 | 65 | 254 | 0.0 | 2.0 | 0.00 | 1.04 | 0.00 | 88 | 1015.7 |
| 20260508121006 | 65 | 254 | 0.0 | 2.0 | 0.00 | 1.04 | 0.00 | 88 | 1015.7 |
| 20260508120901 | 65 | 254 | 0.0 | 2.0 | 0.00 | 1.04 | 0.00 | 88 | 1015.7 |
| 20260508120801 | 65 | 254 | 0.0 | 2.0 | 0.00 | 1.04 | 0.00 | 88 | 1015.7 |
| 20260508120703 | 65 | 255 | 0.0 | 2.0 | 0.00 | 1.04 | 0.00 | 88 | 1015.7 |
| 20260508120505 | 65 | 234 | 0.0 | 3.0 | 0.00 | 1.04 | 0.00 | 88 | 1015.8 |
| 20260508120403 | 64 | 306 | 0.0 | 4.0 | 0.00 | 1.04 | 0.00 | 88 | 1015.7 |
| 20260508120303 | 64 | 306 | 0.0 | 4.0 | 0.00 | 1.04 | 0.00 | 88 | 1015.6 |
| 20260508120203 | 64 | 334 | 1.0 | 4.0 | 0.00 | 1.04 | 0.00 | 88 | 1015.7 |
| 20260508120006 | 64 | 169 | 0.0 | 4.0 | 0.00 | 1.04 | 0.00 | 88 | 1015.7 |
| 20260508115901 | 64 | 169 | 0.0 | 4.0 | 0.00 | 1.05 | 0.00 | 88 | 1015.5 |
| 20260508115702 | 64 | 220 | 3.0 | 4.0 | 0.00 | 1.05 | 0.00 | 88 | 1015.6 |
| 20260508115506 | 64 | 284 | 3.0 | 4.0 | 0.00 | 1.05 | 0.00 | 89 | 1015.6 |
| 20260508115401 | 64 | 229 | 3.0 | 3.0 | 0.00 | 1.05 | 0.00 | 89 | 1015.6 |
| 20260508115305 | 64 | 204 | 0.0 | 3.0 | 0.00 | 1.05 | 0.00 | 89 | 1015.7 |
| 20260508115202 | 64 | 222 | 0.0 | 3.0 | 0.00 | 1.05 | 0.00 | 89 | 1015.6 |
| 20260508115101 | 64 | 222 | 0.0 | 3.0 | 0.00 | 1.05 | 0.00 | 89 | 1015.6 |
| 20260508115005 | 64 | 219 | 0.0 | 3.0 | 0.00 | 1.05 | 0.00 | 89 | 1015.6 |
| 20260508114901 | 64 | 219 | 0.0 | 3.0 | 0.00 | 1.05 | 0.00 | 89 | 1015.6 |
| 20260508114702 | 64 | 204 | 0.0 | 3.0 | 0.00 | 1.05 | 0.00 | 89 | 1015.5 |
| 20260508114601 | 64 | 244 | 0.0 | 3.0 | 0.00 | 1.05 | 0.00 | 89 | 1015.5 |
| 20260508114505 | 64 | 317 | 2.0 | 3.0 | 0.00 | 1.05 | 0.00 | 90 | 1015.5 |
| 20260508114402 | 64 | 223 | 0.0 | 2.0 | 0.00 | 1.05 | 0.00 | 90 | 1015.5 |
| 20260508114201 | 64 | 326 | 0.0 | 2.0 | 0.00 | 1.05 | 0.00 | 90 | 1015.6 |
| 20260508114006 | 64 | 257 | 0.0 | 2.0 | 0.00 | 1.05 | 0.00 | 90 | 1015.5 |
| 20260508113902 | 64 | 225 | 0.0 | 2.0 | 0.00 | 1.05 | 0.00 | 90 | 1015.5 |
| 20260508113801 | 64 | 267 | 0.0 | 2.0 | 0.00 | 1.05 | 0.00 | 90 | 1015.5 |
| 20260508113701 | 64 | 240 | 0.0 | 2.0 | 0.00 | 1.05 | 0.00 | 90 | 1015.6 |
| 20260508113602 | 64 | 221 | 0.0 | 3.0 | 0.00 | 1.05 | 0.00 | 90 | 1015.5 |
| 20260508113505 | 64 | 221 | 0.0 | 3.0 | 0.00 | 1.05 | 0.00 | 90 | 1015.5 |
| 20260508113402 | 64 | 221 | 0.0 | 3.0 | 0.00 | 1.05 | 0.00 | 90 | 1015.5 |
| 20260508113302 | 64 | 295 | 2.0 | 3.0 | 0.00 | 1.05 | 0.00 | 90 | 1015.5 |
| 20260508113201 | 64 | 247 | 0.0 | 3.0 | 0.00 | 1.05 | 0.00 | 90 | 1015.5 |
| 20260508113102 | 64 | 231 | 0.0 | 3.0 | 0.00 | 1.05 | 0.00 | 90 | 1015.5 |
| 20260508113006 | 64 | 231 | 0.0 | 3.0 | 0.00 | 1.05 | 0.00 | 90 | 1015.5 |
| 20260508112902 | 64 | 244 | 0.0 | 3.0 | 0.00 | 1.05 | 0.00 | 90 | 1015.4 |
| 20260508112802 | 64 | 228 | 1.0 | 3.0 | 0.00 | 1.05 | 0.00 | 90 | 1015.3 |
| 20260508112702 | 64 | 238 | 0.0 | 2.0 | 0.00 | 1.05 | 0.00 | 90 | 1015.3 |
| 20260508112602 | 64 | 246 | 0.0 | 2.0 | 0.00 | 1.05 | 0.00 | 91 | 1015.2 |
| 20260508112402 | 64 | 323 | 0.0 | 2.0 | 0.00 | 1.05 | 0.00 | 90 | 1015.1 |
| 20260508112301 | 64 | 323 | 0.0 | 2.0 | 0.00 | 1.05 | 0.00 | 90 | 1015.0 |
| 20260508112201 | 64 | 220 | 0.0 | 2.0 | 0.00 | 1.05 | 0.00 | 90 | 1015.0 |
| 20260508112103 | 64 | 220 | 0.0 | 2.0 | 0.00 | 1.05 | 0.00 | 90 | 1015.0 |
| 20260508112007 | 64 | 220 | 0.0 | 2.0 | 0.00 | 1.05 | 0.00 | 91 | 1015.1 |
| 20260508111902 | 64 | 220 | 0.0 | 2.0 | 0.00 | 1.05 | 0.00 | 91 | 1015.1 |
| 20260508111701 | 64 | 197 | 0.0 | 2.0 | 0.00 | 1.05 | 0.00 | 91 | 1015.1 |
| 20260508111505 | 64 | 220 | 0.0 | 2.0 | 0.00 | 1.05 | 0.00 | 91 | 1015.1 |
| 20260508111402 | 64 | 215 | 0.0 | 3.0 | 0.00 | 1.05 | 0.00 | 91 | 1015.2 |
| 20260508111202 | 64 | 215 | 0.0 | 3.0 | 0.00 | 1.05 | 0.00 | 91 | 1015.2 |
| 20260508111103 | 64 | 237 | 1.0 | 3.0 | 0.00 | 1.05 | 0.00 | 91 | 1015.2 |
| 20260508111005 | 64 | 237 | 0.0 | 3.0 | 0.00 | 1.05 | 0.00 | 91 | 1015.2 |
| 20260508110902 | 64 | 241 | 0.0 | 3.0 | 0.00 | 1.05 | 0.00 | 91 | 1015.2 |
| 20260508110802 | 64 | 252 | 0.0 | 3.0 | 0.00 | 1.05 | 0.00 | 91 | 1015.2 |
| 20260508110701 | 64 | 252 | 0.0 | 3.0 | 0.00 | 1.05 | 0.00 | 91 | 1015.1 |
| 20260508110603 | 63 | 227 | 0.0 | 3.0 | 0.00 | 1.05 | 0.00 | 91 | 1015.1 |
| 20260508110401 | 64 | 236 | 0.0 | 2.0 | 0.00 | 1.05 | 0.00 | 91 | 1014.9 |
| 20260508110203 | 63 | 328 | 0.0 | 2.0 | 0.00 | 1.05 | 0.00 | 91 | 1014.8 |
| 20260508110006 | 64 | 240 | 0.0 | 2.0 | 0.00 | 1.05 | 0.00 | 91 | 1014.8 |
| 20260508105901 | 63 | 234 | 0.0 | 2.0 | 0.00 | 1.05 | 0.00 | 91 | 1014.8 |
| 20260508105802 | 63 | 236 | 0.0 | 2.0 | 0.00 | 1.05 | 0.00 | 91 | 1014.7 |
| 20260508105702 | 63 | 225 | 1.0 | 2.0 | 0.00 | 1.05 | 0.00 | 91 | 1014.7 |
| 20260508105603 | 63 | 244 | 0.0 | 2.0 | 0.00 | 1.05 | 0.00 | 91 | 1014.7 |
| 20260508105505 | 63 | 230 | 0.0 | 2.0 | 0.00 | 1.05 | 0.00 | 91 | 1014.7 |
| 20260508105201 | 63 | 247 | 0.0 | 2.0 | 0.00 | 1.05 | 0.00 | 91 | 1014.7 |
| 20260508104901 | 63 | 257 | 2.0 | 3.0 | 0.00 | 1.05 | 0.00 | 91 | 1014.5 |
| 20260508104803 | 63 | 237 | 2.0 | 3.0 | 0.00 | 1.05 | 0.00 | 91 | 1014.5 |
| 20260508104703 | 63 | 245 | 2.0 | 3.0 | 0.00 | 1.05 | 0.00 | 91 | 1014.3 |
| 20260508104601 | 63 | 214 | 0.0 | 3.0 | 0.00 | 1.05 | 0.00 | 91 | 1014.2 |
| 20260508104402 | 64 | 239 | 0.0 | 3.0 | 0.00 | 1.05 | 0.00 | 91 | 1014.3 |
| 20260508104302 | 63 | 249 | 1.0 | 3.0 | 0.00 | 1.05 | 0.00 | 91 | 1014.3 |
| 20260508104102 | 63 | 186 | 0.0 | 3.0 | 0.00 | 1.05 | 0.00 | 91 | 1014.1 |
| 20260508104006 | 63 | 202 | 3.0 | 3.0 | 0.00 | 1.05 | 0.00 | 91 | 1014.1 |
| 20260508103902 | 63 | 183 | 0.0 | 3.0 | 0.00 | 1.05 | 0.00 | 91 | 1014.1 |
| 20260508103801 | 63 | 169 | 2.0 | 3.0 | 0.00 | 1.05 | 0.00 | 91 | 1014.1 |
| 20260508103701 | 63 | 217 | 1.0 | 2.0 | 0.00 | 1.05 | 0.00 | 91 | 1014.0 |
| 20260508103602 | 63 | 197 | 0.0 | 2.0 | 0.00 | 1.05 | 0.00 | 91 | 1014.1 |
| 20260508103504 | 63 | 210 | 1.0 | 2.0 | 0.00 | 1.05 | 0.00 | 91 | 1014.1 |
| 20260508103402 | 63 | 213 | 0.0 | 2.0 | 0.00 | 1.05 | 0.00 | 91 | 1014.0 |
| 20260508103301 | 63 | 227 | 0.0 | 2.0 | 0.00 | 1.05 | 0.00 | 91 | 1014.0 |
| 20260508103202 | 63 | 235 | 0.0 | 2.0 | 0.00 | 1.05 | 0.00 | 91 | 1014.1 |
| 20260508103101 | 63 | 234 | 0.0 | 2.0 | 0.00 | 1.05 | 0.00 | 91 | 1014.1 |
| 20260508103007 | 63 | 234 | 0.0 | 2.0 | 0.00 | 1.05 | 0.00 | 91 | 1014.1 |
| 20260508102903 | 64 | 246 | 0.0 | 2.0 | 0.00 | 1.05 | 0.00 | 91 | 1014.1 |
| 20260508102801 | 64 | 217 | 0.0 | 2.0 | 0.00 | 1.05 | 0.00 | 91 | 1014.2 |
| 20260508102701 | 64 | 227 | 0.0 | 2.0 | 0.00 | 1.05 | 0.00 | 91 | 1014.1 |
| 20260508102602 | 64 | 227 | 2.0 | 2.0 | 0.00 | 1.05 | 0.00 | 91 | 1014.1 |
| 20260508102505 | 64 | 216 | 1.0 | 3.0 | 0.00 | 1.05 | 0.00 | 91 | 1014.1 |
| 20260508102401 | 64 | 233 | 0.0 | 3.0 | 0.00 | 1.05 | 0.00 | 91 | 1014.1 |
| 20260508102306 | 63 | 208 | 0.0 | 3.0 | 0.00 | 1.05 | 0.00 | 91 | 1014.0 |
| 20260508102202 | 64 | 206 | 1.0 | 3.0 | 0.00 | 1.05 | 0.00 | 91 | 1014.0 |
| 20260508102102 | 64 | 227 | 0.0 | 3.0 | 0.00 | 1.05 | 0.00 | 91 | 1014.0 |
| 20260508102005 | 64 | 222 | 0.0 | 3.0 | 0.00 | 1.05 | 0.00 | 91 | 1014.0 |
| 20260508101901 | 64 | 230 | 0.0 | 3.0 | 0.00 | 1.05 | 0.00 | 91 | 1014.1 |
| 20260508101801 | 64 | 230 | 0.0 | 3.0 | 0.00 | 1.05 | 0.00 | 91 | 1014.0 |
| 20260508101701 | 64 | 226 | 2.0 | 3.0 | 0.00 | 1.05 | 0.00 | 91 | 1013.9 |
| 20260508101601 | 64 | 220 | 2.0 | 2.0 | 0.00 | 1.05 | 0.00 | 91 | 1014.0 |
| 20260508101505 | 64 | 221 | 2.0 | 2.0 | 0.00 | 1.05 | 0.00 | 91 | 1014.0 |
| 20260508101402 | 64 | 244 | 0.0 | 2.0 | 0.00 | 1.05 | 0.00 | 91 | 1013.9 |
| 20260508101202 | 64 | 244 | 0.0 | 2.0 | 0.00 | 1.05 | 0.00 | 91 | 1013.9 |
| 20260508101103 | 64 | 244 | 0.0 | 2.0 | 0.00 | 1.05 | 0.00 | 91 | 1014.0 |
| 20260508101006 | 64 | 249 | 0.0 | 2.0 | 0.00 | 1.05 | 0.00 | 91 | 1014.0 |
| 20260508100902 | 64 | 237 | 0.0 | 2.0 | 0.00 | 1.05 | 0.00 | 91 | 1013.9 |
| 20260508100801 | 64 | 224 | 0.0 | 3.0 | 0.00 | 1.05 | 0.00 | 91 | 1013.8 |
| 20260508100702 | 64 | 235 | 0.0 | 3.0 | 0.00 | 1.05 | 0.00 | 91 | 1013.8 |
| 20260508100601 | 64 | 235 | 1.0 | 3.0 | 0.00 | 1.05 | 0.00 | 91 | 1013.8 |
| 20260508100505 | 63 | 229 | 1.0 | 3.0 | 0.00 | 1.05 | 0.00 | 91 | 1013.8 |
| 20260508100402 | 63 | 228 | 0.0 | 3.0 | 0.00 | 1.05 | 0.00 | 91 | 1013.7 |
| 20260508100301 | 63 | 218 | 0.0 | 3.0 | 0.00 | 1.05 | 0.00 | 91 | 1013.7 |
| 20260508100201 | 63 | 199 | 0.0 | 3.0 | 0.00 | 1.05 | 0.00 | 91 | 1013.6 |
| 20260508100103 | 63 | 214 | 0.0 | 3.0 | 0.00 | 1.05 | 0.00 | 91 | 1013.6 |
| 20260508100006 | 63 | 197 | 0.0 | 3.0 | 0.00 | 1.05 | 0.00 | 91 | 1013.6 |
| 20260508095902 | 63 | 162 | 1.0 | 3.0 | 0.00 | 1.05 | 0.00 | 91 | 1013.6 |
| 20260508095802 | 63 | 194 | 1.0 | 3.0 | 0.00 | 1.05 | 0.00 | 91 | 1013.6 |
| 20260508095703 | 63 | 209 | 0.0 | 3.0 | 0.00 | 1.05 | 0.00 | 91 | 1013.6 |
| 20260508095601 | 63 | 209 | 3.0 | 3.0 | 0.00 | 1.05 | 0.00 | 91 | 1013.6 |
| 20260508095505 | 64 | 214 | 2.0 | 3.0 | 0.00 | 1.05 | 0.00 | 91 | 1013.6 |
| 20260508095202 | 64 | 200 | 1.0 | 3.0 | 0.00 | 1.05 | 0.00 | 91 | 1013.7 |
| 20260508095102 | 64 | 239 | 0.0 | 3.0 | 0.00 | 1.05 | 0.00 | 91 | 1013.7 |
| 20260508095006 | 64 | 218 | 0.0 | 3.0 | 0.00 | 1.05 | 0.00 | 91 | 1013.7 |
| 20260508094901 | 64 | 210 | 0.0 | 3.0 | 0.00 | 1.05 | 0.00 | 91 | 1013.8 |
| 20260508094803 | 64 | 205 | 1.0 | 3.0 | 0.00 | 1.05 | 0.00 | 91 | 1013.9 |
| 20260508094701 | 64 | 228 | 1.0 | 3.0 | 0.00 | 1.05 | 0.00 | 91 | 1013.8 |
| 20260508094506 | 64 | 207 | 2.0 | 3.0 | 0.00 | 1.05 | 0.00 | 91 | 1013.7 |
| 20260508094402 | 64 | 221 | 1.0 | 2.0 | 0.00 | 1.05 | 0.00 | 91 | 1013.7 |
| 20260508094302 | 64 | 208 | 0.0 | 2.0 | 0.00 | 1.05 | 0.00 | 91 | 1013.6 |
| 20260508094202 | 64 | 212 | 0.0 | 2.0 | 0.00 | 1.05 | 0.00 | 91 | 1013.6 |
| 20260508094004 | 64 | 197 | 0.0 | 2.0 | 0.00 | 1.05 | 0.00 | 91 | 1013.7 |
| 20260508093901 | 64 | 211 | 1.0 | 2.0 | 0.00 | 1.05 | 0.00 | 91 | 1013.6 |
| 20260508093602 | 64 | 183 | 0.0 | 3.0 | 0.00 | 1.05 | 0.00 | 91 | 1013.6 |
| 20260508093505 | 64 | 202 | 1.0 | 3.0 | 0.00 | 1.05 | 0.00 | 91 | 1013.6 |
| 20260508093402 | 64 | 222 | 0.0 | 3.0 | 0.00 | 1.05 | 0.00 | 91 | 1013.6 |
| 20260508093301 | 64 | 222 | 0.0 | 3.0 | 0.00 | 1.05 | 0.00 | 91 | 1013.5 |
| 20260508093201 | 64 | 231 | 0.0 | 3.0 | 0.00 | 1.05 | 0.00 | 91 | 1013.5 |
| 20260508093005 | 64 | 158 | 0.0 | 3.0 | 0.00 | 1.05 | 0.00 | 91 | 1013.5 |
| 20260508092903 | 64 | 208 | 0.0 | 3.0 | 0.00 | 1.05 | 0.00 | 91 | 1013.6 |
| 20260508092803 | 64 | 210 | 0.0 | 1.0 | 0.00 | 1.05 | 0.00 | 91 | 1013.6 |
| 20260508092701 | 64 | 176 | 0.0 | 1.0 | 0.00 | 1.05 | 0.00 | 91 | 1013.5 |
| 20260508092505 | 64 | 209 | 0.0 | 2.0 | 0.00 | 1.05 | 0.00 | 91 | 1013.6 |
| 20260508092402 | 64 | 216 | 0.0 | 2.0 | 0.00 | 1.05 | 0.00 | 91 | 1013.6 |
| 20260508092302 | 64 | 216 | 0.0 | 2.0 | 0.00 | 1.05 | 0.00 | 91 | 1013.7 |
| 20260508092202 | 64 | 216 | 0.0 | 2.0 | 0.00 | 1.05 | 0.00 | 91 | 1013.7 |
| 20260508092101 | 64 | 231 | 0.0 | 2.0 | 0.00 | 1.05 | 0.00 | 91 | 1013.8 |
| 20260508092004 | 64 | 231 | 0.0 | 2.0 | 0.00 | 1.05 | 0.00 | 91 | 1013.8 |
| 20260508091902 | 64 | 235 | 0.0 | 2.0 | 0.00 | 1.05 | 0.00 | 91 | 1013.8 |
| 20260508091802 | 64 | 232 | 0.0 | 2.0 | 0.00 | 1.05 | 0.00 | 91 | 1013.7 |
| 20260508091701 | 64 | 233 | 0.0 | 2.0 | 0.00 | 1.05 | 0.00 | 91 | 1013.8 |
| 20260508091602 | 64 | 209 | 2.0 | 2.0 | 0.00 | 1.05 | 0.00 | 91 | 1013.7 |
| 20260508091504 | 64 | 219 | 0.0 | 2.0 | 0.00 | 1.05 | 0.00 | 91 | 1013.7 |
| 20260508091401 | 64 | 232 | 0.0 | 2.0 | 0.00 | 1.05 | 0.00 | 90 | 1013.6 |
| 20260508091302 | 64 | 219 | 1.0 | 2.0 | 0.00 | 1.05 | 0.00 | 90 | 1013.6 |
| 20260508091005 | 64 | 224 | 0.0 | 2.0 | 0.00 | 1.05 | 0.00 | 90 | 1013.5 |
| 20260508090901 | 64 | 239 | 0.0 | 2.0 | 0.00 | 1.05 | 0.00 | 90 | 1013.4 |
| 20260508090801 | 64 | 204 | 0.0 | 0.0 | 0.00 | 1.05 | 0.00 | 90 | 1013.4 |
| 20260508090504 | 64 | 220 | 0.0 | 2.0 | 0.00 | 1.05 | 0.00 | 90 | 1013.4 |
| 20260508090401 | 64 | 220 | 0.0 | 2.0 | 0.00 | 1.05 | 0.00 | 90 | 1013.4 |
| 20260508090301 | 64 | 220 | 0.0 | 2.0 | 0.00 | 1.05 | 0.00 | 90 | 1013.3 |
| 20260508090201 | 64 | 220 | 0.0 | 2.0 | 0.00 | 1.05 | 0.00 | 90 | 1013.3 |
| 20260508090007 | 64 | 220 | 0.0 | 2.0 | 0.00 | 1.05 | 0.00 | 90 | 1013.4 |
| 20260508085900 | 64 | 207 | 0.0 | 2.0 | 0.00 | 1.05 | 0.00 | 90 | 1013.4 |
| 20260508085800 | 64 | 217 | 0.0 | 2.0 | 0.00 | 1.05 | 0.00 | 90 | 1013.4 |
| 20260508085701 | 64 | 217 | 0.0 | 2.0 | 0.00 | 1.05 | 0.00 | 90 | 1013.4 |
| 20260508085601 | 64 | 217 | 0.0 | 2.0 | 0.00 | 1.05 | 0.00 | 90 | 1013.3 |
| 20260508085505 | 64 | 217 | 0.0 | 2.0 | 0.00 | 1.05 | 0.00 | 90 | 1013.3 |
| 20260508085400 | 64 | 223 | 0.0 | 2.0 | 0.00 | 1.05 | 0.00 | 90 | 1013.4 |
| 20260508085301 | 64 | 219 | 0.0 | 2.0 | 0.00 | 1.05 | 0.00 | 90 | 1013.4 |
| 20260508085100 | 64 | 217 | 0.0 | 2.0 | 0.00 | 1.05 | 0.00 | 90 | 1013.4 |
| 20260508085006 | 64 | 215 | 0.0 | 2.0 | 0.00 | 1.05 | 0.00 | 90 | 1013.4 |
| 20260508084901 | 64 | 208 | 1.0 | 2.0 | 0.00 | 1.05 | 0.00 | 90 | 1013.3 |
| 20260508084801 | 64 | 208 | 0.0 | 2.0 | 0.00 | 1.05 | 0.00 | 90 | 1013.3 |
| 20260508084701 | 65 | 219 | 0.0 | 2.0 | 0.00 | 1.05 | 0.00 | 90 | 1013.3 |
| 20260508084601 | 64 | 191 | 0.0 | 2.0 | 0.00 | 1.05 | 0.00 | 90 | 1013.3 |
| 20260508084505 | 65 | 184 | 1.0 | 2.0 | 0.00 | 1.05 | 0.00 | 90 | 1013.3 |
| 20260508084401 | 65 | 206 | 0.0 | 2.0 | 0.00 | 1.05 | 0.00 | 90 | 1013.2 |
| 20260508084300 | 65 | 212 | 0.0 | 2.0 | 0.00 | 1.05 | 0.00 | 90 | 1013.3 |
| 20260508084201 | 65 | 191 | 0.0 | 2.0 | 0.00 | 1.05 | 0.00 | 90 | 1013.2 |
| 20260508084100 | 65 | 195 | 0.0 | 0.0 | 0.00 | 1.05 | 0.00 | 90 | 1013.3 |
| 20260508084005 | 65 | 195 | 0.0 | 0.0 | 0.00 | 1.05 | 0.00 | 90 | 1013.3 |
| 20260508083900 | 65 | 207 | 0.0 | 0.0 | 0.00 | 1.05 | 0.00 | 90 | 1013.3 |
| 20260508083801 | 65 | 207 | 0.0 | 0.0 | 0.00 | 1.05 | 0.00 | 90 | 1013.2 |
| 20260508083707 | 65 | 207 | 0.0 | 0.0 | 0.00 | 1.05 | 0.00 | 90 | 1013.2 |
| 20260508083504 | 65 | 207 | 0.0 | 0.0 | 0.00 | 1.05 | 0.00 | 90 | 1013.2 |
| 20260508083401 | 65 | 207 | 0.0 | 0.0 | 0.00 | 1.05 | 0.00 | 90 | 1013.3 |
| 20260508083300 | 65 | 262 | 0.0 | 0.0 | 0.00 | 1.05 | 0.00 | 90 | 1013.3 |
| 20260508083201 | 65 | 262 | 0.0 | 1.0 | 0.00 | 1.05 | 0.00 | 90 | 1013.4 |
| 20260508083006 | 65 | 262 | 0.0 | 2.0 | 0.00 | 1.05 | 0.00 | 90 | 1013.3 |
| 20260508082900 | 65 | 262 | 0.0 | 2.0 | 0.00 | 1.05 | 0.00 | 90 | 1013.3 |
| 20260508082800 | 65 | 261 | 0.0 | 2.0 | 0.00 | 1.05 | 0.00 | 90 | 1013.3 |
| 20260508082700 | 65 | 1 | 0.0 | 2.0 | 0.00 | 1.05 | 0.00 | 90 | 1013.3 |
| 20260508082504 | 65 | 1 | 0.0 | 2.0 | 0.00 | 1.05 | 0.00 | 90 | 1013.3 |
| 20260508082400 | 65 | 219 | 0.0 | 2.0 | 0.00 | 1.05 | 0.00 | 90 | 1013.3 |
| 20260508082200 | 65 | 210 | 2.0 | 2.0 | 0.00 | 1.05 | 0.00 | 90 | 1013.3 |
| 20260508082100 | 65 | 219 | 0.0 | 2.0 | 0.00 | 1.05 | 0.00 | 90 | 1013.3 |
| 20260508082005 | 65 | 228 | 0.0 | 2.0 | 0.00 | 1.05 | 0.00 | 90 | 1013.3 |
| 20260508081800 | 65 | 222 | 0.0 | 2.0 | 0.00 | 1.05 | 0.00 | 90 | 1013.3 |
| 20260508081602 | 65 | 244 | 0.0 | 2.0 | 0.00 | 1.05 | 0.00 | 90 | 1013.4 |
| 20260508081505 | 65 | 230 | 0.0 | 2.0 | 0.00 | 1.05 | 0.00 | 90 | 1013.4 |
| 20260508081301 | 65 | 231 | 0.0 | 2.0 | 0.00 | 1.05 | 0.00 | 90 | 1013.4 |
| 20260508081200 | 65 | 240 | 0.0 | 2.0 | 0.00 | 1.05 | 0.00 | 90 | 1013.4 |
| 20260508081101 | 65 | 220 | 0.0 | 2.0 | 0.00 | 1.05 | 0.00 | 90 | 1013.3 |
| 20260508081005 | 65 | 226 | 0.0 | 2.0 | 0.00 | 1.05 | 0.00 | 90 | 1013.3 |
| 20260508080900 | 65 | 223 | 0.0 | 2.0 | 0.00 | 1.05 | 0.00 | 90 | 1013.3 |
| 20260508080801 | 65 | 195 | 0.0 | 0.0 | 0.00 | 1.05 | 0.00 | 90 | 1013.3 |
| 20260508080700 | 65 | 195 | 0.0 | 0.0 | 0.00 | 1.05 | 0.00 | 90 | 1013.3 |
| 20260508080504 | 65 | 184 | 0.0 | 1.0 | 0.00 | 1.05 | 0.00 | 90 | 1013.3 |
| 20260508080401 | 65 | 184 | 0.0 | 1.0 | 0.00 | 1.05 | 0.00 | 90 | 1013.4 |
| 20260508080300 | 65 | 184 | 0.0 | 1.0 | 0.00 | 1.05 | 0.00 | 90 | 1013.5 |
| 20260508080200 | 65 | 184 | 0.0 | 2.0 | 0.00 | 1.05 | 0.00 | 90 | 1013.4 |
| 20260508080101 | 65 | 184 | 0.0 | 2.0 | 0.00 | 1.05 | 0.00 | 90 | 1013.4 |
| 20260508080006 | 65 | 184 | 0.0 | 2.0 | 0.00 | 1.05 | 0.00 | 90 | 1013.4 |
| 20260508075901 | 65 | 184 | 0.0 | 2.0 | 0.00 | 1.05 | 0.00 | 90 | 1013.4 |
| 20260508075800 | 65 | 184 | 0.0 | 2.0 | 0.00 | 1.05 | 0.00 | 90 | 1013.4 |
| 20260508075700 | 65 | 184 | 0.0 | 2.0 | 0.00 | 1.05 | 0.00 | 90 | 1013.4 |
| 20260508075600 | 65 | 165 | 0.0 | 2.0 | 0.00 | 1.05 | 0.00 | 90 | 1013.4 |
| 20260508075505 | 65 | 195 | 0.0 | 2.0 | 0.00 | 1.05 | 0.00 | 90 | 1013.4 |
| 20260508075401 | 65 | 197 | 0.0 | 2.0 | 0.00 | 1.05 | 0.00 | 90 | 1013.5 |
| 20260508075301 | 65 | 188 | 0.0 | 2.0 | 0.00 | 1.05 | 0.00 | 90 | 1013.4 |
| 20260508075100 | 65 | 211 | 0.0 | 1.0 | 0.00 | 1.05 | 0.00 | 90 | 1013.4 |
| 20260508075005 | 65 | 223 | 1.0 | 2.0 | 0.00 | 1.05 | 0.00 | 90 | 1013.4 |
| 20260508074901 | 65 | 224 | 0.0 | 2.0 | 0.00 | 1.05 | 0.00 | 90 | 1013.5 |
| 20260508074801 | 65 | 219 | 0.0 | 2.0 | 0.00 | 1.05 | 0.00 | 90 | 1013.5 |
| 20260508074700 | 65 | 157 | 0.0 | 2.0 | 0.00 | 1.05 | 0.00 | 90 | 1013.5 |
| 20260508074601 | 65 | 157 | 0.0 | 2.0 | 0.00 | 1.05 | 0.00 | 90 | 1013.5 |
| 20260508074505 | 65 | 157 | 0.0 | 2.0 | 0.00 | 1.05 | 0.00 | 90 | 1013.5 |
| 20260508074400 | 65 | 157 | 0.0 | 2.0 | 0.00 | 1.05 | 0.00 | 90 | 1013.4 |
| 20260508074300 | 65 | 157 | 0.0 | 2.0 | 0.00 | 1.05 | 0.00 | 89 | 1013.4 |
| 20260508074101 | 65 | 208 | 0.0 | 2.0 | 0.00 | 1.05 | 0.00 | 89 | 1013.6 |
| 20260508074005 | 65 | 186 | 1.0 | 2.0 | 0.00 | 1.05 | 0.00 | 89 | 1013.6 |
| 20260508073901 | 65 | 213 | 0.0 | 2.0 | 0.00 | 1.05 | 0.00 | 89 | 1013.7 |
| 20260508073801 | 65 | 213 | 0.0 | 2.0 | 0.00 | 1.05 | 0.00 | 89 | 1013.5 |
| 20260508073700 | 65 | 213 | 0.0 | 2.0 | 0.00 | 1.05 | 0.00 | 89 | 1013.6 |
| 20260508073559 | 65 | 213 | 0.0 | 2.0 | 0.00 | 1.05 | 0.00 | 89 | 1013.5 |
| 20260508073504 | 65 | 176 | 0.0 | 2.0 | 0.00 | 1.05 | 0.00 | 89 | 1013.5 |
| 20260508073400 | 65 | 195 | 0.0 | 2.0 | 0.00 | 1.05 | 0.00 | 89 | 1013.5 |
| 20260508073301 | 65 | 200 | 0.0 | 2.0 | 0.00 | 1.05 | 0.00 | 89 | 1013.6 |
| 20260508073201 | 65 | 206 | 0.0 | 2.0 | 0.00 | 1.05 | 0.00 | 89 | 1013.6 |
| 20260508073100 | 65 | 238 | 0.0 | 2.0 | 0.00 | 1.05 | 0.00 | 89 | 1013.6 |
| 20260508073006 | 65 | 238 | 0.0 | 2.0 | 0.00 | 1.05 | 0.00 | 89 | 1013.6 |
| 20260508072902 | 65 | 238 | 0.0 | 2.0 | 0.00 | 1.05 | 0.00 | 89 | 1013.6 |
| 20260508072700 | 65 | 222 | 0.0 | 0.0 | 0.00 | 1.05 | 0.00 | 89 | 1013.6 |
| 20260508072601 | 66 | 222 | 0.0 | 0.0 | 0.00 | 1.05 | 0.00 | 89 | 1013.6 |
| 20260508072505 | 66 | 204 | 0.0 | 1.0 | 0.00 | 1.05 | 0.00 | 89 | 1013.6 |
| 20260508072401 | 66 | 204 | 0.0 | 2.0 | 0.00 | 1.05 | 0.00 | 89 | 1013.4 |
| 20260508072300 | 66 | 204 | 0.0 | 2.0 | 0.00 | 1.05 | 0.00 | 89 | 1013.4 |
| 20260508072200 | 66 | 204 | 0.0 | 2.0 | 0.00 | 1.05 | 0.00 | 89 | 1013.4 |
| 20260508072101 | 66 | 204 | 0.0 | 2.0 | 0.00 | 1.05 | 0.00 | 89 | 1013.4 |
| 20260508072005 | 66 | 204 | 0.0 | 2.0 | 0.00 | 1.05 | 0.00 | 89 | 1013.4 |
| 20260508071900 | 66 | 204 | 0.0 | 2.0 | 0.00 | 1.05 | 0.00 | 89 | 1013.4 |
| 20260508071800 | 66 | 204 | 0.0 | 2.0 | 0.00 | 1.05 | 0.00 | 89 | 1013.4 |
| 20260508071600 | 66 | 216 | 0.0 | 3.0 | 0.00 | 1.05 | 0.00 | 89 | 1013.4 |
| 20260508071505 | 66 | 213 | 1.0 | 3.0 | 0.00 | 1.05 | 0.00 | 89 | 1013.4 |
| 20260508071400 | 66 | 215 | 0.0 | 3.0 | 0.00 | 1.05 | 0.00 | 89 | 1013.4 |
| 20260508071300 | 66 | 209 | 1.0 | 3.0 | 0.00 | 1.05 | 0.00 | 88 | 1013.4 |
| 20260508071100 | 66 | 236 | 0.0 | 3.0 | 0.00 | 1.05 | 0.00 | 88 | 1013.5 |
| 20260508071004 | 66 | 215 | 0.0 | 3.0 | 0.00 | 1.05 | 0.00 | 88 | 1013.5 |
| 20260508070900 | 66 | 231 | 0.0 | 3.0 | 0.00 | 1.05 | 0.00 | 88 | 1013.5 |
| 20260508070800 | 66 | 255 | 0.0 | 3.0 | 0.00 | 1.05 | 0.00 | 88 | 1013.5 |
| 20260508070701 | 66 | 265 | 2.0 | 2.0 | 0.00 | 1.05 | 0.00 | 88 | 1013.4 |
| 20260508070601 | 66 | 248 | 0.0 | 2.0 | 0.00 | 1.05 | 0.00 | 88 | 1013.4 |
| 20260508070504 | 66 | 220 | 0.0 | 2.0 | 0.00 | 1.05 | 0.00 | 88 | 1013.4 |
| 20260508070300 | 66 | 226 | 0.0 | 2.0 | 0.00 | 1.05 | 0.00 | 88 | 1013.5 |
| 20260508070200 | 66 | 203 | 0.0 | 2.0 | 0.00 | 1.05 | 0.00 | 88 | 1013.5 |
| 20260508070101 | 66 | 213 | 0.0 | 2.0 | 0.00 | 1.05 | 0.00 | 88 | 1013.5 |
| 20260508070006 | 66 | 200 | 0.0 | 2.0 | 0.00 | 1.05 | 0.00 | 88 | 1013.5 |
| 20260508065900 | 66 | 220 | 0.0 | 2.0 | 0.00 | 1.05 | 0.00 | 88 | 1013.6 |
| 20260508065801 | 66 | 229 | 2.0 | 2.0 | 0.00 | 1.05 | 0.00 | 88 | 1013.6 |
| 20260508065701 | 66 | 224 | 0.0 | 2.0 | 0.00 | 1.05 | 0.00 | 88 | 1013.7 |
| 20260508065601 | 66 | 239 | 0.0 | 2.0 | 0.00 | 1.05 | 0.00 | 88 | 1013.6 |
| 20260508065505 | 66 | 239 | 0.0 | 2.0 | 0.00 | 1.05 | 0.00 | 87 | 1013.6 |
| 20260508065400 | 66 | 239 | 0.0 | 2.0 | 0.00 | 1.05 | 0.00 | 87 | 1013.6 |
| 20260508065300 | 66 | 231 | 2.0 | 2.0 | 0.00 | 1.05 | 0.00 | 87 | 1013.6 |
| 20260508065201 | 66 | 222 | 0.0 | 2.0 | 0.00 | 1.05 | 0.00 | 87 | 1013.6 |
| 20260508065100 | 66 | 217 | 0.0 | 2.0 | 0.00 | 1.05 | 0.00 | 87 | 1013.7 |
| 20260508065003 | 67 | 216 | 0.0 | 2.0 | 0.00 | 1.05 | 0.00 | 87 | 1013.7 |
| 20260508064901 | 67 | 225 | 0.0 | 2.0 | 0.00 | 1.05 | 0.00 | 87 | 1013.6 |
| 20260508064800 | 66 | 172 | 0.0 | 2.0 | 0.00 | 1.05 | 0.00 | 87 | 1013.7 |
| 20260508064701 | 67 | 230 | 0.0 | 2.0 | 0.00 | 1.05 | 0.00 | 87 | 1013.7 |
| 20260508064600 | 67 | 230 | 0.0 | 2.0 | 0.00 | 1.05 | 0.00 | 87 | 1013.6 |
| 20260508064400 | 67 | 227 | 0.0 | 2.0 | 0.00 | 1.05 | 0.00 | 87 | 1013.7 |
| 20260508064300 | 67 | 198 | 0.0 | 2.0 | 0.00 | 1.05 | 0.00 | 87 | 1013.7 |
| 20260508064200 | 67 | 226 | 0.0 | 2.0 | 0.00 | 1.05 | 0.00 | 87 | 1013.7 |
| 20260508064101 | 67 | 212 | 0.0 | 2.0 | 0.00 | 1.05 | 0.00 | 87 | 1013.7 |
| 20260508064005 | 67 | 244 | 0.0 | 2.0 | 0.00 | 1.05 | 0.00 | 87 | 1013.7 |
| 20260508063901 | 67 | 244 | 0.0 | 2.0 | 0.00 | 1.05 | 0.00 | 87 | 1013.9 |
| 20260508063759 | 67 | 244 | 0.0 | 2.0 | 0.00 | 1.05 | 0.00 | 87 | 1013.8 |
| 20260508063700 | 67 | 227 | 0.0 | 2.0 | 0.00 | 1.05 | 0.00 | 87 | 1013.9 |
| 20260508063600 | 67 | 227 | 0.0 | 2.0 | 0.00 | 1.05 | 0.00 | 87 | 1013.9 |
| 20260508063504 | 67 | 227 | 0.0 | 2.0 | 0.00 | 1.05 | 0.00 | 87 | 1013.9 |
| 20260508063400 | 67 | 227 | 0.0 | 2.0 | 0.00 | 1.05 | 0.00 | 87 | 1013.9 |
| 20260508063300 | 67 | 221 | 2.0 | 2.0 | 0.00 | 1.05 | 0.00 | 86 | 1013.9 |
| 20260508063100 | 67 | 232 | 0.0 | 2.0 | 0.00 | 1.05 | 0.00 | 86 | 1013.9 |
| 20260508062901 | 67 | 290 | 0.0 | 2.0 | 0.00 | 1.05 | 0.00 | 86 | 1013.9 |
| 20260508062800 | 67 | 291 | 0.0 | 2.0 | 0.00 | 1.05 | 0.00 | 86 | 1013.9 |
| 20260508062700 | 67 | 291 | 0.0 | 3.0 | 0.00 | 1.05 | 0.00 | 86 | 1014.0 |
| 20260508062400 | 67 | 281 | 0.0 | 3.0 | 0.00 | 1.05 | 0.00 | 86 | 1014.0 |
| 20260508062101 | 67 | 235 | 0.0 | 3.0 | 0.00 | 1.05 | 0.00 | 86 | 1014.1 |
| 20260508062005 | 67 | 294 | 1.0 | 3.0 | 0.00 | 1.05 | 0.00 | 86 | 1014.1 |
| 20260508061900 | 67 | 321 | 0.0 | 3.0 | 0.00 | 1.05 | 0.00 | 86 | 1014.1 |
| 20260508061700 | 67 | 275 | 0.0 | 3.0 | 0.00 | 1.05 | 0.00 | 86 | 1014.1 |
| 20260508061600 | 67 | 235 | 0.0 | 3.0 | 0.00 | 1.05 | 0.00 | 86 | 1014.1 |
| 20260508061505 | 67 | 235 | 0.0 | 3.0 | 0.00 | 1.05 | 0.00 | 86 | 1014.1 |
| 20260508061400 | 67 | 219 | 0.0 | 3.0 | 0.00 | 1.05 | 0.00 | 86 | 1014.2 |
| 20260508061300 | 67 | 239 | 0.0 | 3.0 | 0.00 | 1.05 | 0.00 | 86 | 1014.1 |
| 20260508061200 | 68 | 248 | 1.0 | 3.0 | 0.00 | 1.05 | 0.00 | 86 | 1014.1 |
| 20260508061005 | 68 | 240 | 0.0 | 3.0 | 0.00 | 1.05 | 0.00 | 86 | 1014.1 |
| 20260508060800 | 68 | 246 | 0.0 | 3.0 | 0.00 | 1.05 | 0.00 | 86 | 1014.1 |
| 20260508060601 | 68 | 298 | 1.0 | 3.0 | 0.00 | 1.05 | 0.00 | 86 | 1014.0 |
| 20260508060400 | 68 | 319 | 1.0 | 2.0 | 0.00 | 1.05 | 0.00 | 86 | 1014.1 |
| 20260508060201 | 68 | 353 | 2.0 | 2.0 | 0.00 | 1.05 | 0.00 | 86 | 1014.2 |
| 20260508060007 | 68 | 6 | 0.0 | 2.0 | 0.00 | 1.05 | 0.00 | 86 | 1014.1 |
| 20260508055903 | 68 | 239 | 0.0 | 2.0 | 0.00 | 1.05 | 0.00 | 86 | 1014.2 |
| 20260508055803 | 68 | 229 | 0.0 | 3.0 | 0.00 | 1.05 | 0.00 | 86 | 1014.1 |
| 20260508055703 | 68 | 229 | 0.0 | 3.0 | 0.00 | 1.05 | 0.00 | 86 | 1014.2 |
| 20260508055604 | 68 | 213 | 2.0 | 3.0 | 0.00 | 1.05 | 0.00 | 86 | 1014.2 |
| 20260508055505 | 68 | 326 | 0.0 | 3.0 | 0.00 | 1.05 | 0.00 | 86 | 1014.2 |
| 20260508055403 | 68 | 326 | 0.0 | 3.0 | 0.00 | 1.05 | 0.00 | 86 | 1014.2 |
| 20260508055306 | 68 | 155 | 0.0 | 3.0 | 0.00 | 1.05 | 0.00 | 86 | 1014.1 |
| 20260508055103 | 68 | 13 | 0.0 | 3.0 | 0.00 | 1.05 | 0.00 | 86 | 1014.2 |
| 20260508055007 | 68 | 314 | 0.0 | 3.0 | 0.00 | 1.05 | 0.00 | 86 | 1014.2 |
| 20260508054903 | 68 | 246 | 0.0 | 2.0 | 0.00 | 1.05 | 0.00 | 86 | 1014.3 |
| 20260508054703 | 68 | 263 | 0.0 | 3.0 | 0.00 | 1.05 | 0.00 | 86 | 1014.1 |
| 20260508054603 | 68 | 286 | 1.0 | 3.0 | 0.00 | 1.05 | 0.00 | 86 | 1014.1 |
| 20260508054505 | 68 | 316 | 0.0 | 3.0 | 0.00 | 1.05 | 0.00 | 86 | 1014.3 |
| 20260508054403 | 68 | 31 | 0.0 | 3.0 | 0.00 | 1.05 | 0.00 | 86 | 1014.3 |
| 20260508054304 | 68 | 31 | 0.0 | 3.0 | 0.00 | 1.05 | 0.00 | 86 | 1014.2 |
| 20260508054204 | 68 | 31 | 0.0 | 3.0 | 0.00 | 1.05 | 0.00 | 86 | 1014.2 |
| 20260508054104 | 68 | 31 | 0.0 | 3.0 | 0.00 | 1.05 | 0.00 | 86 | 1014.3 |
| 20260508054007 | 68 | 31 | 0.0 | 3.0 | 0.00 | 1.05 | 0.00 | 86 | 1014.2 |
| 20260508053904 | 68 | 24 | 1.0 | 3.0 | 0.00 | 1.05 | 0.00 | 86 | 1014.2 |
| 20260508053802 | 68 | 302 | 2.0 | 3.0 | 0.00 | 1.05 | 0.00 | 86 | 1014.2 |
| 20260508053703 | 68 | 239 | 0.0 | 3.0 | 0.00 | 1.05 | 0.00 | 86 | 1014.2 |
| 20260508053604 | 68 | 275 | 1.0 | 3.0 | 0.00 | 1.05 | 0.00 | 86 | 1014.2 |
| 20260508053505 | 68 | 360 | 0.0 | 3.0 | 0.00 | 1.05 | 0.00 | 86 | 1014.1 |
| 20260508053404 | 68 | 332 | 2.0 | 4.0 | 0.00 | 1.05 | 0.00 | 86 | 1014.1 |
| 20260508053304 | 68 | 360 | 1.0 | 4.0 | 0.00 | 1.05 | 0.00 | 86 | 1014.1 |
| 20260508053203 | 68 | 351 | 1.0 | 4.0 | 0.00 | 1.05 | 0.00 | 86 | 1014.0 |
| 20260508053103 | 68 | 215 | 0.0 | 4.0 | 0.00 | 1.05 | 0.00 | 86 | 1014.0 |
| 20260508053007 | 68 | 300 | 2.0 | 4.0 | 0.00 | 1.05 | 0.00 | 86 | 1014.0 |
| 20260508052903 | 68 | 228 | 0.0 | 5.0 | 0.00 | 1.05 | 0.00 | 86 | 1014.1 |
| 20260508052704 | 68 | 295 | 0.0 | 5.0 | 0.00 | 1.05 | 0.00 | 86 | 1014.0 |
| 20260508052603 | 68 | 224 | 0.0 | 5.0 | 0.00 | 1.05 | 0.00 | 86 | 1014.0 |
| 20260508052505 | 68 | 243 | 3.0 | 5.0 | 0.00 | 1.05 | 0.00 | 86 | 1014.0 |
| 20260508052403 | 68 | 302 | 1.0 | 5.0 | 0.00 | 1.05 | 0.00 | 86 | 1013.9 |
| 20260508052306 | 68 | 290 | 0.0 | 5.0 | 0.00 | 1.05 | 0.00 | 86 | 1013.9 |
| 20260508052203 | 68 | 286 | 0.0 | 5.0 | 0.00 | 1.05 | 0.00 | 86 | 1013.9 |
| 20260508052006 | 68 | 323 | 0.0 | 5.0 | 0.00 | 1.05 | 0.00 | 86 | 1013.8 |
| 20260508051803 | 68 | 314 | 1.0 | 5.0 | 0.00 | 1.05 | 0.00 | 86 | 1013.9 |
| 20260508051703 | 68 | 326 | 0.0 | 5.0 | 0.00 | 1.05 | 0.00 | 86 | 1013.9 |
| 20260508051506 | 68 | 341 | 0.0 | 5.0 | 0.00 | 1.05 | 0.00 | 86 | 1014.0 |
| 20260508051403 | 68 | 6 | 3.0 | 5.0 | 0.00 | 1.05 | 0.00 | 86 | 1013.9 |
| 20260508051303 | 69 | 353 | 2.0 | 5.0 | 0.00 | 1.05 | 0.00 | 86 | 1014.0 |
| 20260508051204 | 69 | 269 | 0.0 | 5.0 | 0.00 | 1.05 | 0.00 | 86 | 1014.0 |
| 20260508051103 | 69 | 349 | 3.0 | 5.0 | 0.00 | 1.05 | 0.00 | 86 | 1014.0 |
| 20260508051006 | 69 | 347 | 0.0 | 5.0 | 0.00 | 1.05 | 0.00 | 86 | 1014.0 |
| 20260508050904 | 69 | 297 | 0.0 | 5.0 | 0.00 | 1.05 | 0.00 | 86 | 1013.9 |
| 20260508050803 | 69 | 319 | 2.0 | 5.0 | 0.00 | 1.05 | 0.00 | 86 | 1014.0 |
| 20260508050704 | 69 | 321 | 1.0 | 5.0 | 0.00 | 1.05 | 0.00 | 86 | 1013.9 |
| 20260508050603 | 69 | 316 | 0.0 | 5.0 | 0.00 | 1.05 | 0.00 | 86 | 1014.0 |
| 20260508050505 | 69 | 309 | 5.0 | 5.0 | 0.00 | 1.05 | 0.00 | 87 | 1014.0 |
| 20260508050403 | 69 | 319 | 1.0 | 5.0 | 0.00 | 1.05 | 0.00 | 87 | 1014.0 |
| 20260508050303 | 69 | 10 | 0.0 | 5.0 | 0.00 | 1.05 | 0.00 | 87 | 1014.0 |
| 20260508050006 | 69 | 333 | 2.0 | 6.0 | 0.00 | 1.05 | 1.05 | 87 | 1013.9 |
| 20260508045903 | 69 | 296 | 0.0 | 6.0 | 0.00 | 1.05 | 1.05 | 87 | 1014.0 |
| 20260508045802 | 69 | 342 | 0.0 | 6.0 | 0.00 | 1.05 | 1.05 | 87 | 1014.0 |
| 20260508045602 | 69 | 304 | 2.0 | 6.0 | 0.00 | 1.05 | 1.05 | 87 | 1014.1 |
| 20260508045505 | 69 | 321 | 1.0 | 6.0 | 0.00 | 1.05 | 1.05 | 86 | 1014.1 |
| 20260508045402 | 69 | 311 | 2.0 | 6.0 | 0.00 | 1.05 | 1.05 | 86 | 1014.2 |
| 20260508045306 | 69 | 12 | 2.0 | 6.0 | 0.00 | 1.05 | 1.05 | 87 | 1014.2 |
| 20260508045203 | 69 | 305 | 1.0 | 4.0 | 0.00 | 1.05 | 1.05 | 87 | 1014.1 |
| 20260508045103 | 69 | 321 | 1.0 | 4.0 | 0.00 | 1.05 | 1.05 | 87 | 1014.2 |
| 20260508045006 | 69 | 317 | 0.0 | 4.0 | 0.00 | 1.05 | 1.05 | 86 | 1014.2 |
| 20260508044803 | 69 | 323 | 0.0 | 4.0 | 0.00 | 1.05 | 1.05 | 86 | 1014.2 |
| 20260508044604 | 69 | 307 | 0.0 | 4.0 | 0.00 | 1.05 | 1.05 | 86 | 1014.2 |
| 20260508044506 | 69 | 345 | 2.0 | 4.0 | 0.00 | 1.05 | 1.05 | 86 | 1014.2 |
| 20260508044402 | 69 | 332 | 0.0 | 4.0 | 0.00 | 1.05 | 1.05 | 86 | 1014.3 |
| 20260508044302 | 69 | 8 | 2.0 | 4.0 | 0.00 | 1.05 | 1.05 | 86 | 1014.2 |
| 20260508044203 | 69 | 317 | 1.0 | 6.0 | 0.00 | 1.05 | 1.05 | 86 | 1014.3 |
| 20260508044102 | 69 | 337 | 0.0 | 6.0 | 0.00 | 1.05 | 1.05 | 86 | 1014.3 |
| 20260508043902 | 69 | 36 | 0.0 | 6.0 | 0.00 | 1.05 | 1.05 | 86 | 1014.4 |
| 20260508043803 | 69 | 319 | 3.0 | 6.0 | 0.00 | 1.05 | 1.05 | 86 | 1014.5 |
| 20260508043702 | 69 | 265 | 2.0 | 6.0 | 0.00 | 1.05 | 1.05 | 86 | 1014.4 |
| 20260508043506 | 69 | 345 | 4.0 | 6.0 | 0.00 | 1.05 | 1.05 | 86 | 1014.4 |
| 20260508043402 | 69 | 316 | 2.0 | 6.0 | 0.00 | 1.05 | 1.05 | 86 | 1014.4 |
| 20260508043303 | 69 | 356 | 3.0 | 5.0 | 0.00 | 1.05 | 1.05 | 86 | 1014.4 |
| 20260508043203 | 69 | 305 | 2.0 | 5.0 | 0.00 | 1.05 | 1.05 | 86 | 1014.4 |
| 20260508043102 | 69 | 6 | 5.0 | 5.0 | 0.00 | 1.05 | 1.05 | 86 | 1014.4 |
| 20260508043006 | 69 | 305 | 3.0 | 4.0 | 0.00 | 1.05 | 1.05 | 86 | 1014.4 |
| 20260508042902 | 69 | 265 | 3.0 | 4.0 | 0.00 | 1.05 | 1.05 | 86 | 1014.5 |
| 20260508042702 | 69 | 298 | 2.0 | 4.0 | 0.00 | 1.05 | 1.05 | 86 | 1014.4 |
| 20260508042603 | 69 | 324 | 0.0 | 4.0 | 0.00 | 1.05 | 1.05 | 86 | 1014.4 |
| 20260508042506 | 69 | 330 | 2.0 | 4.0 | 0.00 | 1.05 | 1.05 | 86 | 1014.4 |
| 20260508042405 | 69 | 307 | 2.0 | 4.0 | 0.00 | 1.05 | 1.05 | 86 | 1014.4 |
| 20260508042306 | 70 | 284 | 0.0 | 4.0 | 0.00 | 1.05 | 1.05 | 86 | 1014.4 |
| 20260508042203 | 69 | 307 | 2.0 | 4.0 | 0.00 | 1.05 | 1.05 | 86 | 1014.5 |
| 20260508042103 | 70 | 314 | 3.0 | 3.0 | 0.00 | 1.05 | 1.05 | 86 | 1014.5 |
| 20260508042005 | 70 | 303 | 2.0 | 3.0 | 0.00 | 1.05 | 1.05 | 86 | 1014.5 |
| 20260508041902 | 70 | 319 | 2.0 | 3.0 | 0.00 | 1.05 | 1.05 | 86 | 1014.5 |
| 20260508041802 | 70 | 321 | 1.0 | 3.0 | 0.00 | 1.05 | 1.05 | 86 | 1014.3 |
| 20260508041702 | 70 | 312 | 0.0 | 3.0 | 0.00 | 1.05 | 1.05 | 86 | 1014.4 |
| 20260508041602 | 70 | 346 | 2.0 | 3.0 | 0.00 | 1.05 | 1.05 | 86 | 1014.3 |
| 20260508041403 | 70 | 319 | 0.0 | 3.0 | 0.00 | 1.05 | 1.05 | 86 | 1014.3 |
| 20260508041303 | 70 | 257 | 0.0 | 3.0 | 0.00 | 1.05 | 1.05 | 86 | 1014.3 |
| 20260508041203 | 70 | 312 | 2.0 | 3.0 | 0.00 | 1.05 | 1.05 | 86 | 1014.3 |
| 20260508041102 | 70 | 319 | 2.0 | 4.0 | 0.00 | 1.05 | 1.05 | 86 | 1014.3 |
| 20260508041005 | 70 | 307 | 0.0 | 4.0 | 0.00 | 1.05 | 1.05 | 86 | 1014.3 |
| 20260508040802 | 70 | 283 | 2.0 | 4.0 | 0.00 | 1.05 | 1.05 | 86 | 1014.2 |
| 20260508040602 | 70 | 312 | 0.0 | 4.0 | 0.00 | 1.05 | 1.05 | 86 | 1014.3 |
| 20260508040506 | 70 | 324 | 1.0 | 4.0 | 0.00 | 1.05 | 1.05 | 86 | 1014.3 |
| 20260508040403 | 70 | 345 | 1.0 | 4.0 | 0.00 | 1.05 | 1.05 | 86 | 1014.3 |
| 20260508040302 | 70 | 323 | 2.0 | 4.0 | 0.00 | 1.05 | 1.05 | 85 | 1014.3 |
| 20260508040202 | 70 | 324 | 3.0 | 4.0 | 0.00 | 1.05 | 1.05 | 86 | 1014.3 |
| 20260508040007 | 70 | 317 | 3.0 | 4.0 | 0.00 | 1.05 | 1.05 | 85 | 1014.3 |
| 20260508035902 | 70 | 314 | 2.0 | 4.0 | 0.00 | 1.05 | 1.05 | 85 | 1014.3 |
| 20260508035803 | 70 | 307 | 0.0 | 4.0 | 0.00 | 1.05 | 1.05 | 85 | 1014.3 |
| 20260508035702 | 70 | 360 | 0.0 | 4.0 | 0.00 | 1.05 | 1.05 | 85 | 1014.4 |
| 20260508035602 | 70 | 314 | 2.0 | 4.0 | 0.00 | 1.05 | 1.05 | 85 | 1014.3 |
| 20260508035403 | 70 | 307 | 3.0 | 4.0 | 0.00 | 1.05 | 1.05 | 85 | 1014.3 |
| 20260508035306 | 70 | 307 | 4.0 | 4.0 | 0.00 | 1.05 | 1.05 | 85 | 1014.2 |
| 20260508035202 | 70 | 295 | 2.0 | 4.0 | 0.00 | 1.05 | 1.05 | 85 | 1014.3 |
| 20260508035102 | 70 | 335 | 4.0 | 4.0 | 0.00 | 1.05 | 1.05 | 85 | 1014.2 |
| 20260508035006 | 70 | 307 | 2.0 | 4.0 | 0.00 | 1.05 | 1.05 | 86 | 1014.2 |
| 20260508034903 | 70 | 316 | 2.0 | 4.0 | 0.00 | 1.05 | 1.05 | 86 | 1014.2 |
| 20260508034802 | 70 | 309 | 2.0 | 4.0 | 0.00 | 1.05 | 1.05 | 85 | 1014.2 |
| 20260508034703 | 70 | 326 | 2.0 | 4.0 | 0.00 | 1.05 | 1.05 | 85 | 1014.2 |
| 20260508034602 | 70 | 267 | 3.0 | 5.0 | 0.00 | 1.05 | 1.05 | 85 | 1014.1 |
| 20260508034505 | 70 | 319 | 3.0 | 5.0 | 0.00 | 1.05 | 1.05 | 86 | 1014.1 |
| 20260508034402 | 70 | 342 | 0.0 | 5.0 | 0.00 | 1.05 | 1.05 | 86 | 1014.1 |
| 20260508034304 | 70 | 321 | 0.0 | 5.0 | 0.00 | 1.05 | 1.05 | 85 | 1014.1 |
| 20260508034007 | 70 | 295 | 3.0 | 5.0 | 0.00 | 1.05 | 1.05 | 86 | 1014.0 |
| 20260508033902 | 70 | 319 | 2.0 | 5.0 | 0.00 | 1.05 | 1.05 | 86 | 1014.0 |
| 20260508033803 | 70 | 319 | 2.0 | 5.0 | 0.00 | 1.05 | 1.05 | 86 | 1013.9 |
| 20260508033703 | 70 | 351 | 3.0 | 5.0 | 0.00 | 1.05 | 1.05 | 86 | 1013.9 |
| 20260508033603 | 70 | 296 | 2.0 | 4.0 | 0.00 | 1.05 | 1.05 | 86 | 1013.9 |
| 20260508033505 | 70 | 309 | 2.0 | 4.0 | 0.00 | 1.05 | 1.05 | 86 | 1013.9 |
| 20260508033403 | 70 | 294 | 2.0 | 4.0 | 0.00 | 1.05 | 1.05 | 86 | 1013.9 |
| 20260508033203 | 70 | 326 | 0.0 | 5.0 | 0.00 | 1.05 | 1.05 | 86 | 1013.9 |
| 20260508033006 | 70 | 302 | 2.0 | 5.0 | 0.00 | 1.05 | 1.05 | 86 | 1013.9 |
| 20260508032902 | 70 | 268 | 3.0 | 5.0 | 0.00 | 1.05 | 1.05 | 87 | 1013.9 |
| 20260508032802 | 70 | 316 | 3.0 | 5.0 | 0.00 | 1.05 | 1.05 | 87 | 1013.9 |
| 20260508032703 | 70 | 284 | 3.0 | 5.0 | 0.00 | 1.05 | 1.05 | 87 | 1013.9 |
| 20260508032602 | 70 | 311 | 2.0 | 5.0 | 0.00 | 1.05 | 1.05 | 87 | 1013.9 |
| 20260508032506 | 71 | 321 | 4.0 | 5.0 | 0.00 | 1.05 | 1.05 | 87 | 1013.9 |
| 20260508032404 | 71 | 8 | 4.0 | 5.0 | 0.00 | 1.05 | 1.05 | 87 | 1013.9 |
| 20260508032306 | 71 | 319 | 0.0 | 3.0 | 0.00 | 1.05 | 1.05 | 88 | 1013.9 |
| 20260508032202 | 71 | 18 | 3.0 | 3.0 | 0.00 | 1.05 | 1.05 | 88 | 1013.9 |
| 20260508032102 | 71 | 319 | 0.0 | 3.0 | 0.00 | 1.05 | 1.05 | 88 | 1014.0 |
| 20260508032006 | 71 | 331 | 0.0 | 3.0 | 0.00 | 1.05 | 1.05 | 88 | 1013.9 |
| 20260508031903 | 71 | 316 | 1.0 | 3.0 | 0.00 | 1.05 | 1.05 | 88 | 1013.9 |
| 20260508031803 | 71 | 342 | 0.0 | 3.0 | 0.00 | 1.05 | 1.05 | 88 | 1013.9 |
| 20260508031702 | 71 | 339 | 1.0 | 3.0 | 0.00 | 1.05 | 1.05 | 88 | 1013.9 |
| 20260508031506 | 71 | 309 | 1.0 | 3.0 | 0.00 | 1.05 | 1.05 | 88 | 1013.8 |
| 20260508031202 | 71 | 344 | 3.0 | 3.0 | 0.00 | 1.05 | 1.05 | 88 | 1013.8 |
| 20260508031102 | 71 | 297 | 1.0 | 3.0 | 0.00 | 1.05 | 1.05 | 88 | 1013.7 |
| 20260508031006 | 71 | 326 | 0.0 | 3.0 | 0.00 | 1.05 | 1.05 | 88 | 1013.7 |
| 20260508030702 | 71 | 339 | 0.0 | 4.0 | 0.00 | 1.05 | 1.05 | 88 | 1013.7 |
| 20260508030505 | 71 | 330 | 0.0 | 4.0 | 0.00 | 1.05 | 1.05 | 88 | 1013.7 |
| 20260508030403 | 71 | 307 | 0.0 | 4.0 | 0.00 | 1.05 | 1.05 | 88 | 1013.6 |
| 20260508030302 | 72 | 271 | 0.0 | 4.0 | 0.00 | 1.05 | 1.05 | 88 | 1013.6 |
| 20260508030202 | 72 | 333 | 2.0 | 4.0 | 0.00 | 1.05 | 1.05 | 88 | 1013.5 |
| 20260508030104 | 72 | 337 | 1.0 | 4.0 | 0.00 | 1.05 | 1.05 | 88 | 1013.5 |
| 20260508030009 | 72 | 326 | 2.0 | 4.0 | 0.00 | 1.05 | 1.05 | 88 | 1013.5 |
| 20260508025902 | 72 | 333 | 2.0 | 4.0 | 0.00 | 1.05 | 1.05 | 88 | 1013.5 |
| 20260508025803 | 72 | 333 | 2.0 | 4.0 | 0.00 | 1.05 | 1.05 | 88 | 1013.5 |
| 20260508025702 | 72 | 316 | 0.0 | 4.0 | 0.00 | 1.05 | 1.05 | 88 | 1013.5 |
| 20260508025404 | 72 | 311 | 0.0 | 3.0 | 0.00 | 1.05 | 1.05 | 87 | 1013.4 |
| 20260508025305 | 72 | 307 | 2.0 | 3.0 | 0.00 | 1.05 | 1.05 | 87 | 1013.4 |
| 20260508025202 | 72 | 326 | 1.0 | 3.0 | 0.00 | 1.05 | 1.05 | 87 | 1013.4 |
| 20260508024904 | 72 | 296 | 1.0 | 4.0 | 0.00 | 1.05 | 1.05 | 87 | 1013.4 |
| 20260508024803 | 72 | 288 | 2.0 | 4.0 | 0.00 | 1.05 | 1.05 | 87 | 1013.4 |
| 20260508024702 | 72 | 319 | 3.0 | 4.0 | 0.00 | 1.05 | 1.05 | 87 | 1013.3 |
| 20260508024402 | 72 | 310 | 0.0 | 4.0 | 0.00 | 1.05 | 1.05 | 87 | 1013.3 |
| 20260508024302 | 72 | 319 | 2.0 | 4.0 | 0.00 | 1.05 | 1.05 | 87 | 1013.3 |
| 20260508024203 | 72 | 300 | 2.0 | 4.0 | 0.00 | 1.05 | 1.05 | 87 | 1013.3 |
| 20260508024103 | 72 | 302 | 3.0 | 4.0 | 0.00 | 1.05 | 1.05 | 87 | 1013.4 |
| 20260508024005 | 72 | 314 | 3.0 | 4.0 | 0.00 | 1.05 | 1.05 | 87 | 1013.4 |
| 20260508023902 | 72 | 307 | 3.0 | 5.0 | 0.00 | 1.05 | 1.05 | 87 | 1013.4 |
| 20260508023801 | 72 | 307 | 3.0 | 5.0 | 0.00 | 1.05 | 1.05 | 87 | 1013.4 |
| 20260508023703 | 72 | 285 | 2.0 | 5.0 | 0.00 | 1.05 | 1.05 | 87 | 1013.3 |
| 20260508023602 | 72 | 321 | 1.0 | 5.0 | 0.00 | 1.05 | 1.05 | 87 | 1013.3 |
| 20260508023505 | 72 | 305 | 3.0 | 5.0 | 0.00 | 1.05 | 1.05 | 87 | 1013.3 |
| 20260508023302 | 72 | 316 | 0.0 | 5.0 | 0.00 | 1.05 | 1.05 | 87 | 1013.3 |
| 20260508023202 | 72 | 314 | 3.0 | 5.0 | 0.00 | 1.05 | 1.05 | 87 | 1013.2 |
| 20260508023103 | 73 | 295 | 2.0 | 5.0 | 0.00 | 1.05 | 1.05 | 87 | 1013.2 |
| 20260508022902 | 73 | 300 | 2.0 | 5.0 | 0.00 | 1.05 | 1.05 | 87 | 1013.2 |
| 20260508022803 | 73 | 314 | 2.0 | 5.0 | 0.00 | 1.05 | 1.05 | 87 | 1013.2 |
| 20260508022702 | 73 | 310 | 0.0 | 5.0 | 0.00 | 1.05 | 1.05 | 87 | 1013.2 |
| 20260508022602 | 73 | 309 | 2.0 | 5.0 | 0.00 | 1.05 | 1.05 | 88 | 1013.1 |
| 20260508022506 | 73 | 288 | 3.0 | 5.0 | 0.00 | 1.05 | 1.05 | 88 | 1013.1 |
| 20260508022403 | 73 | 324 | 2.0 | 5.0 | 0.00 | 1.05 | 1.05 | 88 | 1013.2 |
| 20260508022306 | 73 | 316 | 2.0 | 5.0 | 0.00 | 1.05 | 1.05 | 88 | 1013.1 |
| 20260508022202 | 73 | 309 | 3.0 | 5.0 | 0.00 | 1.05 | 1.05 | 88 | 1013.2 |
| 20260508022102 | 73 | 295 | 3.0 | 5.0 | 0.00 | 1.05 | 1.05 | 88 | 1013.1 |
| 20260508021902 | 73 | 304 | 4.0 | 5.0 | 0.00 | 1.05 | 1.05 | 88 | 1013.1 |
| 20260508021703 | 73 | 307 | 3.0 | 5.0 | 0.00 | 1.05 | 1.05 | 88 | 1013.2 |
| 20260508021602 | 73 | 302 | 4.0 | 5.0 | 0.00 | 1.05 | 1.05 | 88 | 1013.1 |
| 20260508021506 | 73 | 319 | 3.0 | 4.0 | 0.00 | 1.05 | 1.05 | 88 | 1013.1 |
| 20260508021402 | 73 | 291 | 4.0 | 4.0 | 0.00 | 1.05 | 1.05 | 88 | 1013.1 |
| 20260508021303 | 73 | 319 | 3.0 | 4.0 | 0.00 | 1.05 | 1.05 | 89 | 1013.1 |
| 20260508021103 | 73 | 307 | 2.0 | 3.0 | 0.00 | 1.05 | 1.05 | 88 | 1013.0 |
| 20260508021006 | 73 | 323 | 2.0 | 3.0 | 0.00 | 1.05 | 1.05 | 88 | 1013.0 |
| 20260508020902 | 73 | 335 | 2.0 | 3.0 | 0.00 | 1.05 | 1.05 | 88 | 1012.9 |
| 20260508020702 | 73 | 309 | 1.0 | 3.0 | 0.00 | 1.05 | 1.05 | 88 | 1012.9 |
| 20260508020603 | 73 | 304 | 2.0 | 3.0 | 0.00 | 1.05 | 1.05 | 88 | 1013.0 |
| 20260508020402 | 73 | 319 | 2.0 | 3.0 | 0.00 | 1.05 | 1.05 | 88 | 1013.0 |
| 20260508020302 | 73 | 323 | 1.0 | 3.0 | 0.00 | 1.05 | 1.05 | 88 | 1013.0 |
| 20260508020202 | 73 | 314 | 3.0 | 3.0 | 0.00 | 1.05 | 1.05 | 88 | 1012.9 |
| 20260508020007 | 73 | 319 | 2.0 | 3.0 | 0.00 | 1.05 | 1.05 | 88 | 1012.9 |
| 20260508015902 | 73 | 330 | 1.0 | 3.0 | 0.00 | 1.05 | 1.05 | 88 | 1012.8 |
| 20260508015802 | 74 | 321 | 1.0 | 3.0 | 0.00 | 1.05 | 1.05 | 88 | 1012.9 |
| 20260508015701 | 74 | 324 | 2.0 | 3.0 | 0.00 | 1.05 | 1.05 | 88 | 1012.8 |
| 20260508015505 | 74 | 330 | 1.0 | 3.0 | 0.00 | 1.05 | 1.05 | 88 | 1012.8 |
| 20260508015402 | 74 | 314 | 0.0 | 3.0 | 0.00 | 1.05 | 1.05 | 88 | 1012.8 |
| 20260508015305 | 74 | 330 | 1.0 | 3.0 | 0.00 | 1.05 | 1.05 | 88 | 1012.8 |
| 20260508015203 | 74 | 314 | 2.0 | 3.0 | 0.00 | 1.05 | 1.05 | 88 | 1012.8 |
| 20260508015102 | 74 | 333 | 1.0 | 3.0 | 0.00 | 1.05 | 1.05 | 88 | 1012.8 |
| 20260508015005 | 74 | 324 | 0.0 | 3.0 | 0.00 | 1.05 | 1.05 | 88 | 1012.8 |
| 20260508014901 | 74 | 324 | 1.0 | 3.0 | 0.00 | 1.05 | 1.05 | 88 | 1012.8 |
| 20260508014802 | 74 | 321 | 2.0 | 3.0 | 0.00 | 1.05 | 1.05 | 88 | 1012.7 |
| 20260508014702 | 74 | 314 | 0.0 | 4.0 | 0.00 | 1.05 | 1.05 | 88 | 1012.7 |
| 20260508014602 | 74 | 319 | 1.0 | 4.0 | 0.00 | 1.05 | 1.05 | 88 | 1012.7 |
| 20260508014506 | 74 | 316 | 3.0 | 4.0 | 0.00 | 1.05 | 1.05 | 88 | 1012.7 |
| 20260508014403 | 74 | 304 | 2.0 | 4.0 | 0.00 | 1.05 | 1.05 | 88 | 1012.7 |
| 20260508014302 | 74 | 323 | 2.0 | 4.0 | 0.00 | 1.05 | 1.05 | 88 | 1012.8 |
| 20260508014103 | 74 | 316 | 2.0 | 4.0 | 0.00 | 1.05 | 1.05 | 88 | 1012.9 |
| 20260508014007 | 74 | 324 | 3.0 | 4.0 | 0.00 | 1.05 | 1.05 | 88 | 1012.9 |
| 20260508013802 | 74 | 296 | 2.0 | 3.0 | 0.00 | 1.05 | 1.05 | 88 | 1012.9 |
| 20260508013602 | 74 | 305 | 2.0 | 3.0 | 0.00 | 1.05 | 1.05 | 88 | 1012.9 |
| 20260508013506 | 74 | 295 | 3.0 | 3.0 | 0.00 | 1.05 | 1.05 | 88 | 1012.9 |
| 20260508013402 | 74 | 314 | 2.0 | 3.0 | 0.00 | 1.05 | 1.05 | 88 | 1012.8 |
| 20260508013302 | 74 | 300 | 3.0 | 3.0 | 0.00 | 1.05 | 1.05 | 88 | 1012.8 |
| 20260508013202 | 74 | 307 | 2.0 | 3.0 | 0.00 | 1.05 | 1.05 | 88 | 1012.8 |
| 20260508013006 | 74 | 304 | 3.0 | 3.0 | 0.00 | 1.05 | 1.05 | 87 | 1012.8 |
| 20260508012902 | 74 | 321 | 2.0 | 4.0 | 0.00 | 1.05 | 1.05 | 87 | 1012.8 |
| 20260508012802 | 74 | 309 | 2.0 | 4.0 | 0.00 | 1.05 | 1.05 | 87 | 1012.7 |
| 20260508012505 | 74 | 309 | 2.0 | 4.0 | 0.00 | 1.05 | 1.05 | 87 | 1012.7 |
| 20260508012402 | 74 | 314 | 2.0 | 4.0 | 0.00 | 1.05 | 1.05 | 87 | 1012.8 |
| 20260508012307 | 74 | 305 | 2.0 | 4.0 | 0.00 | 1.05 | 1.05 | 87 | 1012.8 |
| 20260508012204 | 74 | 316 | 2.0 | 4.0 | 0.00 | 1.05 | 1.05 | 87 | 1012.7 |
| 20260508012103 | 74 | 303 | 2.0 | 4.0 | 0.00 | 1.05 | 1.05 | 87 | 1012.7 |
| 20260508011902 | 74 | 316 | 2.0 | 4.0 | 0.00 | 1.05 | 1.05 | 87 | 1012.7 |
| 20260508011702 | 75 | 316 | 3.0 | 4.0 | 0.00 | 1.05 | 1.05 | 87 | 1012.7 |
| 20260508011602 | 75 | 323 | 2.0 | 4.0 | 0.00 | 1.05 | 1.05 | 87 | 1012.7 |
| 20260508011505 | 74 | 305 | 2.0 | 4.0 | 0.00 | 1.05 | 1.05 | 87 | 1012.7 |
| 20260508011203 | 75 | 323 | 3.0 | 5.0 | 0.00 | 1.05 | 1.05 | 87 | 1012.7 |
| 20260508011102 | 75 | 338 | 4.0 | 5.0 | 0.00 | 1.05 | 1.05 | 87 | 1012.7 |
| 20260508010902 | 75 | 312 | 2.0 | 5.0 | 0.00 | 1.05 | 1.05 | 87 | 1012.7 |
| 20260508010802 | 75 | 302 | 3.0 | 5.0 | 0.00 | 1.05 | 1.05 | 87 | 1012.6 |
| 20260508010702 | 75 | 316 | 3.0 | 5.0 | 0.00 | 1.05 | 1.05 | 87 | 1012.6 |
| 20260508010303 | 75 | 289 | 3.0 | 5.0 | 0.00 | 1.05 | 1.05 | 88 | 1012.5 |
| 20260508010006 | 75 | 314 | 2.0 | 5.0 | 0.00 | 1.05 | 1.05 | 88 | 1012.4 |
| 20260508005904 | 75 | 326 | 2.0 | 5.0 | 0.00 | 1.05 | 1.05 | 88 | 1012.4 |
| 20260508005804 | 75 | 314 | 2.0 | 5.0 | 0.00 | 1.05 | 1.05 | 88 | 1012.4 |
| 20260508005704 | 75 | 309 | 3.0 | 5.0 | 0.00 | 1.05 | 1.05 | 88 | 1012.4 |
| 20260508005603 | 75 | 323 | 2.0 | 5.0 | 0.00 | 1.05 | 1.05 | 88 | 1012.4 |
| 20260508005505 | 75 | 319 | 2.0 | 5.0 | 0.00 | 1.05 | 1.05 | 89 | 1012.5 |
| 20260508005402 | 75 | 312 | 3.0 | 5.0 | 0.00 | 1.05 | 1.05 | 89 | 1012.4 |
| 20260508005306 | 75 | 296 | 3.0 | 5.0 | 0.00 | 1.05 | 1.05 | 89 | 1012.4 |
| 20260508005203 | 75 | 338 | 2.0 | 5.0 | 0.00 | 1.05 | 1.05 | 89 | 1012.5 |
| 20260508004903 | 75 | 319 | 2.0 | 5.0 | 0.00 | 1.05 | 1.05 | 89 | 1012.5 |
| 20260508004803 | 75 | 321 | 3.0 | 5.0 | 0.00 | 1.05 | 1.05 | 89 | 1012.5 |
| 20260508004702 | 75 | 314 | 2.0 | 5.0 | 0.00 | 1.05 | 1.05 | 89 | 1012.5 |
| 20260508004603 | 75 | 300 | 4.0 | 5.0 | 0.00 | 1.05 | 1.05 | 89 | 1012.4 |
| 20260508004506 | 75 | 305 | 2.0 | 4.0 | 0.00 | 1.05 | 1.05 | 89 | 1012.5 |
| 20260508004304 | 75 | 296 | 2.0 | 4.0 | 0.00 | 1.05 | 1.05 | 89 | 1012.5 |
| 20260508004203 | 75 | 285 | 3.0 | 3.0 | 0.00 | 1.05 | 1.05 | 89 | 1012.5 |
| 20260508004103 | 75 | 321 | 3.0 | 3.0 | 0.00 | 1.05 | 1.05 | 89 | 1012.4 |
| 20260508004006 | 75 | 321 | 2.0 | 3.0 | 0.00 | 1.05 | 1.05 | 89 | 1012.5 |
| 20260508003604 | 75 | 317 | 2.0 | 3.0 | 0.00 | 1.05 | 1.05 | 89 | 1012.6 |
| 20260508003505 | 75 | 307 | 2.0 | 3.0 | 0.00 | 1.05 | 1.05 | 89 | 1012.4 |
| 20260508003403 | 75 | 323 | 2.0 | 3.0 | 0.00 | 1.05 | 1.05 | 89 | 1012.4 |
| 20260508003303 | 75 | 294 | 2.0 | 3.0 | 0.00 | 1.05 | 1.05 | 89 | 1012.4 |
| 20260508003203 | 75 | 323 | 2.0 | 3.0 | 0.00 | 1.05 | 1.05 | 89 | 1012.4 |
| 20260508003104 | 75 | 340 | 1.0 | 3.0 | 0.00 | 1.05 | 1.05 | 89 | 1012.4 |
| 20260508003008 | 75 | 305 | 2.0 | 3.0 | 0.00 | 1.05 | 1.05 | 89 | 1012.4 |
| 20260508002903 | 75 | 8 | 0.0 | 3.0 | 0.00 | 1.05 | 1.05 | 89 | 1012.4 |
| 20260508002803 | 75 | 274 | 1.0 | 3.0 | 0.00 | 1.05 | 1.05 | 89 | 1012.4 |
| 20260508002703 | 75 | 309 | 2.0 | 3.0 | 0.00 | 1.05 | 1.05 | 89 | 1012.4 |
| 20260508002604 | 75 | 333 | 0.0 | 3.0 | 0.00 | 1.05 | 1.05 | 89 | 1012.4 |
| 20260508002505 | 75 | 317 | 2.0 | 3.0 | 0.00 | 1.05 | 1.05 | 89 | 1012.4 |
| 20260508002404 | 75 | 328 | 1.0 | 3.0 | 0.00 | 1.05 | 1.05 | 89 | 1012.3 |
| 20260508002306 | 75 | 309 | 2.0 | 3.0 | 0.00 | 1.05 | 1.05 | 89 | 1012.3 |
| 20260508002205 | 75 | 342 | 1.0 | 3.0 | 0.00 | 1.05 | 1.05 | 89 | 1012.3 |
| 20260508002103 | 75 | 347 | 1.0 | 3.0 | 0.00 | 1.05 | 1.05 | 89 | 1012.3 |
| 20260508002007 | 75 | 338 | 0.0 | 3.0 | 0.00 | 1.05 | 1.05 | 89 | 1012.3 |
| 20260508001904 | 75 | 317 | 3.0 | 3.0 | 0.00 | 1.05 | 1.05 | 89 | 1012.3 |
| 20260508001803 | 75 | 15 | 1.0 | 3.0 | 0.00 | 1.05 | 1.05 | 89 | 1012.3 |
| 20260508001704 | 75 | 311 | 2.0 | 3.0 | 0.00 | 1.05 | 1.05 | 89 | 1012.3 |
| 20260508001604 | 75 | 356 | 2.0 | 3.0 | 0.00 | 1.05 | 1.05 | 89 | 1012.3 |
| 20260508001404 | 75 | 304 | 2.0 | 3.0 | 0.00 | 1.05 | 1.05 | 88 | 1012.2 |
| 20260508001303 | 75 | 303 | 2.0 | 3.0 | 0.00 | 1.05 | 1.05 | 88 | 1012.2 |
| 20260508001203 | 75 | 311 | 2.0 | 3.0 | 0.00 | 1.05 | 1.05 | 88 | 1012.2 |
| 20260508001103 | 75 | 330 | 2.0 | 3.0 | 0.00 | 1.05 | 1.05 | 88 | 1012.2 |
| 20260508000904 | 75 | 295 | 0.0 | 3.0 | 0.00 | 1.05 | 1.05 | 88 | 1012.1 |
| 20260508000803 | 75 | 340 | 2.0 | 3.0 | 0.00 | 1.05 | 1.05 | 88 | 1012.0 |
| 20260508000702 | 75 | 301 | 0.0 | 3.0 | 0.00 | 1.05 | 1.05 | 88 | 1012.1 |
| 20260508000604 | 75 | 314 | 1.0 | 3.0 | 0.00 | 1.05 | 1.05 | 88 | 1012.0 |
| 20260508000506 | 75 | 312 | 0.0 | 3.0 | 0.00 | 1.05 | 1.05 | 88 | 1012.0 |
| 20260508000405 | 76 | 294 | 2.0 | 4.0 | 0.00 | 1.05 | 1.05 | 88 | 1012.0 |
| 20260508000305 | 76 | 302 | 2.0 | 4.0 | 0.00 | 1.05 | 1.05 | 88 | 1012.0 |
| 20260508000204 | 76 | 317 | 1.0 | 4.0 | 0.00 | 1.05 | 1.05 | 88 | 1011.9 |
| 20260508000104 | 76 | 314 | 3.0 | 4.0 | 0.00 | 1.05 | 1.05 | 88 | 1011.9 |
| 20260508000007 | 76 | 296 | 2.0 | 4.0 | 0.00 | 1.05 | 1.05 | 88 | 1011.9 |
| 20260507235902 | 76 | 317 | 2.0 | 4.0 | 0.00 | 1.05 | 1.05 | 88 | 1011.8 |
| 20260507235802 | 76 | 319 | 2.0 | 4.0 | 0.00 | 1.05 | 1.05 | 88 | 1011.8 |
| 20260507235703 | 76 | 321 | 2.0 | 4.0 | 0.00 | 1.05 | 1.05 | 88 | 1011.8 |
| 20260507235602 | 76 | 330 | 2.0 | 4.0 | 0.00 | 1.05 | 1.05 | 88 | 1011.7 |
| 20260507235506 | 76 | 347 | 3.0 | 4.0 | 0.00 | 1.05 | 1.05 | 88 | 1011.8 |
| 20260507235306 | 76 | 312 | 2.0 | 4.0 | 0.00 | 1.05 | 1.05 | 88 | 1011.8 |
| 20260507235203 | 76 | 328 | 2.0 | 4.0 | 0.00 | 1.05 | 1.05 | 88 | 1011.8 |
| 20260507235104 | 76 | 319 | 2.0 | 4.0 | 0.00 | 1.05 | 1.05 | 88 | 1011.8 |
| 20260507235006 | 76 | 314 | 3.0 | 4.0 | 0.00 | 1.05 | 1.05 | 88 | 1011.8 |
| 20260507234902 | 76 | 312 | 2.0 | 4.0 | 0.00 | 1.05 | 1.05 | 88 | 1011.8 |
| 20260507234803 | 76 | 309 | 2.0 | 4.0 | 0.00 | 1.05 | 1.05 | 88 | 1011.8 |
| 20260507234602 | 76 | 321 | 1.0 | 3.0 | 0.00 | 1.05 | 1.05 | 88 | 1011.8 |
| 20260507234505 | 76 | 321 | 3.0 | 3.0 | 0.00 | 1.05 | 1.05 | 87 | 1011.9 |
| 20260507234402 | 76 | 301 | 2.0 | 3.0 | 0.00 | 1.05 | 1.05 | 87 | 1011.8 |
| 20260507234303 | 76 | 284 | 1.0 | 3.0 | 0.00 | 1.05 | 1.05 | 87 | 1011.8 |
| 20260507234202 | 76 | 288 | 1.0 | 3.0 | 0.00 | 1.05 | 1.05 | 87 | 1011.7 |
| 20260507234102 | 76 | 294 | 1.0 | 3.0 | 0.00 | 1.05 | 1.05 | 87 | 1011.8 |
| 20260507234006 | 76 | 311 | 2.0 | 3.0 | 0.00 | 1.05 | 1.05 | 87 | 1011.8 |
| 20260507233803 | 76 | 275 | 2.0 | 3.0 | 0.00 | 1.05 | 1.05 | 87 | 1011.7 |
| 20260507233403 | 76 | 328 | 2.0 | 4.0 | 0.00 | 1.05 | 1.05 | 87 | 1012.0 |
| 20260507233302 | 76 | 326 | 2.0 | 4.0 | 0.00 | 1.05 | 1.05 | 87 | 1012.1 |
| 20260507233202 | 76 | 299 | 2.0 | 4.0 | 0.00 | 1.05 | 1.05 | 87 | 1012.1 |
| 20260507233103 | 76 | 279 | 2.0 | 4.0 | 0.00 | 1.05 | 1.05 | 87 | 1012.1 |
| 20260507233006 | 76 | 352 | 3.0 | 4.0 | 0.00 | 1.05 | 1.05 | 87 | 1012.1 |
| 20260507232802 | 76 | 314 | 0.0 | 4.0 | 0.00 | 1.05 | 1.05 | 87 | 1012.0 |
| 20260507232702 | 76 | 322 | 0.0 | 4.0 | 0.00 | 1.05 | 1.05 | 87 | 1012.1 |
| 20260507232602 | 76 | 314 | 0.0 | 4.0 | 0.00 | 1.05 | 1.05 | 87 | 1012.0 |
| 20260507232403 | 76 | 347 | 2.0 | 4.0 | 0.00 | 1.05 | 1.05 | 87 | 1011.9 |
| 20260507232306 | 77 | 305 | 1.0 | 3.0 | 0.00 | 1.05 | 1.05 | 86 | 1012.0 |
| 20260507232102 | 77 | 286 | 2.0 | 3.0 | 0.00 | 1.05 | 1.05 | 86 | 1011.9 |
| 20260507232005 | 77 | 309 | 2.0 | 3.0 | 0.00 | 1.05 | 1.05 | 86 | 1011.9 |
| 20260507231903 | 77 | 293 | 2.0 | 3.0 | 0.00 | 1.05 | 1.05 | 86 | 1012.0 |
| 20260507231701 | 77 | 314 | 3.0 | 3.0 | 0.00 | 1.05 | 1.05 | 86 | 1012.1 |
| 20260507231602 | 77 | 262 | 3.0 | 3.0 | 0.00 | 1.05 | 1.05 | 86 | 1012.0 |
| 20260507231505 | 77 | 292 | 2.0 | 3.0 | 0.00 | 1.05 | 1.05 | 86 | 1011.9 |
| 20260507231402 | 77 | 305 | 2.0 | 3.0 | 0.00 | 1.05 | 1.05 | 85 | 1011.9 |
| 20260507231302 | 77 | 295 | 1.0 | 3.0 | 0.00 | 1.05 | 1.05 | 85 | 1012.0 |
| 20260507231203 | 77 | 302 | 2.0 | 3.0 | 0.00 | 1.05 | 1.05 | 85 | 1012.0 |
| 20260507231102 | 77 | 296 | 2.0 | 3.0 | 0.00 | 1.05 | 1.05 | 85 | 1012.0 |
| 20260507231007 | 77 | 295 | 2.0 | 3.0 | 0.00 | 1.05 | 1.05 | 85 | 1012.0 |
| 20260507230902 | 78 | 292 | 2.0 | 4.0 | 0.00 | 1.05 | 1.05 | 85 | 1012.0 |
| 20260507230702 | 77 | 338 | 0.0 | 4.0 | 0.00 | 1.05 | 1.05 | 85 | 1012.0 |
| 20260507230602 | 77 | 312 | 2.0 | 4.0 | 0.00 | 1.05 | 1.05 | 85 | 1012.0 |
| 20260507230505 | 77 | 338 | 0.0 | 4.0 | 0.00 | 1.05 | 1.05 | 85 | 1012.0 |
| 20260507230401 | 77 | 265 | 3.0 | 4.0 | 0.00 | 1.05 | 1.05 | 85 | 1011.9 |
| 20260507230301 | 77 | 328 | 1.0 | 4.0 | 0.00 | 1.05 | 1.05 | 85 | 1011.9 |
| 20260507230203 | 77 | 293 | 2.0 | 4.0 | 0.00 | 1.05 | 1.05 | 85 | 1011.9 |
| 20260507225902 | 77 | 321 | 2.0 | 3.0 | 0.00 | 1.05 | 1.05 | 84 | 1011.9 |
| 20260507225802 | 77 | 295 | 3.0 | 4.0 | 0.00 | 1.05 | 1.05 | 84 | 1011.8 |
| 20260507225602 | 78 | 293 | 3.0 | 5.0 | 0.00 | 1.05 | 1.05 | 84 | 1011.8 |
| 20260507225506 | 78 | 283 | 2.0 | 5.0 | 0.00 | 1.05 | 1.05 | 84 | 1011.8 |
| 20260507225403 | 78 | 335 | 2.0 | 5.0 | 0.00 | 1.05 | 1.05 | 84 | 1011.8 |
| 20260507225305 | 77 | 321 | 1.0 | 5.0 | 0.00 | 1.05 | 1.05 | 84 | 1011.8 |
| 20260507225204 | 77 | 319 | 2.0 | 5.0 | 0.00 | 1.05 | 1.05 | 84 | 1011.8 |
| 20260507225104 | 78 | 340 | 3.0 | 5.0 | 0.00 | 1.05 | 1.05 | 84 | 1011.9 |
| 20260507225007 | 78 | 304 | 3.0 | 5.0 | 0.00 | 1.05 | 1.05 | 84 | 1011.9 |
| 20260507224901 | 78 | 275 | 3.0 | 5.0 | 0.00 | 1.05 | 1.05 | 84 | 1012.0 |
| 20260507224803 | 78 | 317 | 4.0 | 5.0 | 0.00 | 1.05 | 1.05 | 84 | 1012.0 |
| 20260507224702 | 78 | 286 | 2.0 | 5.0 | 0.00 | 1.05 | 1.05 | 84 | 1011.9 |
| 20260507224602 | 78 | 302 | 2.0 | 5.0 | 0.00 | 1.05 | 1.05 | 84 | 1012.0 |
| 20260507224505 | 78 | 275 | 3.0 | 5.0 | 0.00 | 1.05 | 1.05 | 84 | 1012.0 |
| 20260507224403 | 78 | 312 | 3.0 | 7.0 | 0.00 | 1.05 | 1.05 | 84 | 1011.9 |
| 20260507224303 | 78 | 271 | 3.0 | 7.0 | 0.00 | 1.05 | 1.05 | 84 | 1012.0 |
| 20260507224202 | 78 | 324 | 3.0 | 7.0 | 0.00 | 1.05 | 1.05 | 84 | 1011.9 |
| 20260507224103 | 78 | 285 | 3.0 | 7.0 | 0.00 | 1.05 | 1.05 | 84 | 1012.0 |
| 20260507224006 | 78 | 314 | 3.0 | 7.0 | 0.00 | 1.05 | 1.05 | 84 | 1011.9 |
| 20260507223902 | 78 | 265 | 3.0 | 7.0 | 0.00 | 1.05 | 1.05 | 84 | 1011.9 |
| 20260507223802 | 78 | 37 | 1.0 | 7.0 | 0.00 | 1.05 | 1.05 | 84 | 1012.0 |
| 20260507223602 | 78 | 277 | 4.0 | 7.0 | 0.00 | 1.05 | 1.05 | 84 | 1012.0 |
| 20260507223505 | 78 | 345 | 4.0 | 7.0 | 0.00 | 1.05 | 1.05 | 84 | 1012.0 |
| 20260507223403 | 78 | 258 | 1.0 | 4.0 | 0.00 | 1.05 | 1.05 | 84 | 1012.0 |
| 20260507223102 | 78 | 295 | 2.0 | 5.0 | 0.00 | 1.05 | 1.05 | 84 | 1012.1 |
| 20260507223006 | 78 | 288 | 3.0 | 5.0 | 0.00 | 1.05 | 1.05 | 84 | 1012.1 |
| 20260507222803 | 78 | 312 | 3.0 | 5.0 | 0.00 | 1.05 | 1.05 | 84 | 1012.1 |
| 20260507222702 | 78 | 356 | 2.0 | 5.0 | 0.00 | 1.05 | 1.05 | 84 | 1012.1 |
| 20260507222602 | 78 | 307 | 3.0 | 5.0 | 0.00 | 1.05 | 1.05 | 84 | 1012.1 |
| 20260507222506 | 78 | 303 | 2.0 | 5.0 | 0.00 | 1.05 | 1.05 | 84 | 1012.1 |
| 20260507222403 | 78 | 278 | 4.0 | 5.0 | 0.00 | 1.05 | 1.05 | 84 | 1012.2 |
| 20260507222306 | 78 | 314 | 4.0 | 5.0 | 0.00 | 1.05 | 1.05 | 84 | 1012.1 |
| 20260507222202 | 78 | 311 | 2.0 | 5.0 | 0.00 | 1.05 | 1.05 | 84 | 1012.1 |
| 20260507222103 | 78 | 287 | 3.0 | 5.0 | 0.00 | 1.05 | 1.05 | 84 | 1012.0 |
| 20260507222007 | 78 | 326 | 1.0 | 5.0 | 0.00 | 1.05 | 1.05 | 84 | 1012.0 |
| 20260507221902 | 78 | 351 | 1.0 | 5.0 | 0.00 | 1.05 | 1.05 | 84 | 1011.9 |
| 20260507221803 | 78 | 275 | 3.0 | 5.0 | 0.00 | 1.05 | 1.05 | 84 | 1011.9 |
| 20260507221702 | 78 | 151 | 1.0 | 6.0 | 0.00 | 1.05 | 1.05 | 84 | 1012.0 |
| 20260507221506 | 78 | 301 | 2.0 | 6.0 | 0.00 | 1.05 | 1.05 | 85 | 1012.0 |
| 20260507221402 | 78 | 284 | 3.0 | 6.0 | 0.00 | 1.05 | 1.05 | 85 | 1011.9 |
| 20260507221203 | 78 | 295 | 2.0 | 6.0 | 0.00 | 1.05 | 1.05 | 84 | 1012.0 |
| 20260507221006 | 78 | 266 | 3.0 | 6.0 | 0.00 | 1.05 | 1.05 | 85 | 1012.0 |
| 20260507220903 | 78 | 292 | 2.0 | 6.0 | 0.00 | 1.05 | 1.05 | 84 | 1012.0 |
| 20260507220602 | 78 | 299 | 3.0 | 4.0 | 0.00 | 1.05 | 1.05 | 85 | 1012.0 |
| 20260507220506 | 78 | 286 | 3.0 | 4.0 | 0.00 | 1.05 | 1.05 | 85 | 1012.0 |
| 20260507220401 | 78 | 302 | 2.0 | 4.0 | 0.00 | 1.05 | 1.05 | 85 | 1012.0 |
| 20260507220303 | 78 | 281 | 3.0 | 4.0 | 0.00 | 1.05 | 1.05 | 85 | 1012.0 |
| 20260507220202 | 78 | 311 | 2.0 | 4.0 | 0.00 | 1.05 | 1.05 | 85 | 1012.0 |
| 20260507220010 | 78 | 293 | 3.0 | 4.0 | 0.00 | 1.05 | 1.05 | 85 | 1012.0 |
| 20260507215902 | 78 | 283 | 1.0 | 4.0 | 0.00 | 1.05 | 1.05 | 85 | 1012.1 |
| 20260507215802 | 78 | 287 | 2.0 | 4.0 | 0.00 | 1.05 | 1.05 | 85 | 1012.1 |
| 20260507215505 | 78 | 293 | 3.0 | 4.0 | 0.00 | 1.05 | 1.05 | 84 | 1012.1 |
| 20260507215301 | 78 | 281 | 3.0 | 4.0 | 0.00 | 1.05 | 1.05 | 85 | 1012.2 |
| 20260507215203 | 78 | 300 | 2.0 | 4.0 | 0.00 | 1.05 | 1.05 | 85 | 1012.2 |
| 20260507215103 | 78 | 288 | 2.0 | 4.0 | 0.00 | 1.05 | 1.05 | 85 | 1012.1 |
| 20260507215007 | 78 | 252 | 0.0 | 4.0 | 0.00 | 1.05 | 1.05 | 85 | 1012.1 |
| 20260507214902 | 78 | 294 | 3.0 | 4.0 | 0.00 | 1.05 | 1.05 | 85 | 1012.2 |
| 20260507214801 | 78 | 310 | 2.0 | 4.0 | 0.00 | 1.05 | 1.05 | 84 | 1012.1 |
| 20260507214702 | 78 | 275 | 3.0 | 4.0 | 0.00 | 1.05 | 1.05 | 84 | 1012.1 |
| 20260507214602 | 78 | 321 | 3.0 | 4.0 | 0.00 | 1.05 | 1.05 | 85 | 1012.0 |
| 20260507214403 | 78 | 271 | 3.0 | 5.0 | 0.00 | 1.05 | 1.05 | 85 | 1012.0 |
| 20260507214302 | 78 | 307 | 1.0 | 5.0 | 0.00 | 1.05 | 1.05 | 84 | 1011.9 |
| 20260507214202 | 78 | 266 | 3.0 | 5.0 | 0.00 | 1.05 | 1.05 | 85 | 1012.0 |
| 20260507214102 | 78 | 274 | 2.0 | 5.0 | 0.00 | 1.05 | 1.05 | 84 | 1011.9 |
| 20260507214005 | 78 | 261 | 2.0 | 5.0 | 0.00 | 1.05 | 1.05 | 84 | 1012.0 |
| 20260507213902 | 78 | 225 | 2.0 | 5.0 | 0.00 | 1.05 | 1.05 | 84 | 1012.0 |
| 20260507213803 | 78 | 264 | 0.0 | 5.0 | 0.00 | 1.05 | 1.05 | 84 | 1012.0 |
| 20260507213703 | 78 | 254 | 2.0 | 5.0 | 0.00 | 1.05 | 1.05 | 84 | 1012.0 |
| 20260507213506 | 78 | 283 | 4.0 | 5.0 | 0.00 | 1.05 | 1.05 | 84 | 1011.9 |
| 20260507213203 | 78 | 288 | 3.0 | 5.0 | 0.00 | 1.05 | 1.05 | 84 | 1011.8 |
| 20260507213102 | 78 | 279 | 4.0 | 4.0 | 0.00 | 1.05 | 1.05 | 84 | 1011.9 |
| 20260507213006 | 78 | 284 | 3.0 | 4.0 | 0.00 | 1.05 | 1.05 | 85 | 1011.8 |
| 20260507212902 | 78 | 267 | 3.0 | 4.0 | 0.00 | 1.05 | 1.05 | 85 | 1011.9 |
| 20260507212803 | 78 | 272 | 4.0 | 4.0 | 0.00 | 1.05 | 1.05 | 85 | 1011.9 |
| 20260507212702 | 78 | 262 | 2.0 | 4.0 | 0.00 | 1.05 | 1.05 | 85 | 1011.9 |
| 20260507212602 | 77 | 253 | 2.0 | 4.0 | 0.00 | 1.05 | 1.05 | 86 | 1011.8 |
| 20260507212506 | 77 | 286 | 3.0 | 4.0 | 0.00 | 1.05 | 1.05 | 85 | 1011.8 |
| 20260507212402 | 77 | 277 | 3.0 | 4.0 | 0.00 | 1.05 | 1.05 | 85 | 1011.8 |
| 20260507212306 | 77 | 307 | 0.0 | 4.0 | 0.00 | 1.05 | 1.05 | 85 | 1011.8 |
| 20260507212202 | 77 | 236 | 0.0 | 4.0 | 0.00 | 1.05 | 1.05 | 85 | 1011.9 |
| 20260507212103 | 77 | 275 | 2.0 | 4.0 | 0.00 | 1.05 | 1.05 | 85 | 1011.9 |
| 20260507212007 | 77 | 271 | 3.0 | 4.0 | 0.00 | 1.05 | 1.05 | 85 | 1011.9 |
| 20260507211902 | 77 | 265 | 0.0 | 4.0 | 0.00 | 1.05 | 1.05 | 84 | 1011.9 |
| 20260507211802 | 77 | 278 | 2.0 | 4.0 | 0.00 | 1.05 | 1.05 | 84 | 1011.9 |
| 20260507211702 | 77 | 285 | 2.0 | 4.0 | 0.00 | 1.05 | 1.05 | 84 | 1011.8 |
| 20260507211505 | 77 | 277 | 4.0 | 4.0 | 0.00 | 1.05 | 1.05 | 84 | 1011.9 |
| 20260507211402 | 78 | 293 | 3.0 | 5.0 | 0.00 | 1.05 | 1.05 | 84 | 1011.9 |
| 20260507211202 | 78 | 309 | 0.0 | 5.0 | 0.00 | 1.05 | 1.05 | 84 | 1011.8 |
| 20260507211103 | 78 | 263 | 4.0 | 5.0 | 0.00 | 1.05 | 1.05 | 84 | 1011.8 |
| 20260507210902 | 78 | 333 | 3.0 | 5.0 | 0.00 | 1.05 | 1.05 | 83 | 1011.7 |
| 20260507210802 | 78 | 262 | 3.0 | 5.0 | 0.00 | 1.05 | 1.05 | 83 | 1011.8 |
| 20260507210505 | 78 | 270 | 5.0 | 6.0 | 0.00 | 1.05 | 1.05 | 84 | 1011.8 |
| 20260507210402 | 78 | 285 | 2.0 | 6.0 | 0.00 | 1.05 | 1.05 | 83 | 1011.7 |
| 20260507210302 | 78 | 286 | 3.0 | 6.0 | 0.00 | 1.05 | 1.05 | 83 | 1011.6 |
| 20260507210203 | 78 | 271 | 3.0 | 8.0 | 0.00 | 1.05 | 1.05 | 83 | 1011.7 |
| 20260507210103 | 78 | 289 | 3.0 | 8.0 | 0.00 | 1.05 | 1.05 | 84 | 1011.8 |
| 20260507210007 | 78 | 292 | 3.0 | 8.0 | 0.00 | 1.05 | 1.05 | 84 | 1011.8 |
| 20260507205804 | 78 | 305 | 3.0 | 8.0 | 0.00 | 1.05 | 1.05 | 84 | 1011.8 |
| 20260507205602 | 78 | 323 | 3.0 | 8.0 | 0.00 | 1.05 | 1.05 | 85 | 1011.7 |
| 20260507205505 | 77 | 303 | 4.0 | 8.0 | 0.00 | 1.05 | 1.05 | 85 | 1011.8 |